GFSSW_sfc_30mbdewp_000.txt.gz
Dewpoint
52 53 53 53 54 54 51 52 52 51 51 51 52 52 52 52 53 52 37 32 39 40 32 30 32 33 33 29 26 19 16 12 11 17 12 9 21 19 28 38 39 40 45 43 44
53 53 53 53 53 52 52 52 52 53 51 52 52 52 52 52 51 44 42 40 46 43 29 27 24 29 29 26 24 19 11 10 11 15 10 7 13 16 28 39 45 46 46 44 42
53 53 53 53 53 52 52 52 52 52 51 51 51 51 51 52 47 33 40 42 43 40 29 28 27 27 25 23 19 11 5 2 7 11 5 5 6 13 26 37 45 46 44 42 40
53 52 53 53 53 52 52 52 52 51 51 51 51 51 52 52 28 29 36 44 47 43 33 29 28 27 26 23 18 4 4 1 4 4 4 4 5 11 19 25 46 46 44 43 41
52 52 52 52 53 53 52 51 51 51 50 50 50 51 51 45 33 30 36 49 48 40 33 29 28 24 18 14 7 3 2 2 7 12 7 2 0 3 12 24 46 46 46 45 44
52 52 52 52 54 53 52 51 51 50 50 49 50 51 47 29 33 27 34 43 34 32 31 33 26 22 17 14 5 6 3 2 4 11 11 6 9 12 11 27 46 46 46 46 46
52 52 52 53 54 53 51 51 50 50 49 50 50 50 48 32 36 31 25 26 30 31 28 23 29 19 17 9 10 6 3 6 4 13 11 14 15 10 13 23 45 46 47 47 47
52 53 54 55 52 51 51 51 50 50 49 50 50 50 30 35 34 20 20 19 21 24 20 20 21 18 13 10 11 9 9 6 12 16 16 13 11 15 12 14 29 41 44 44 45
53 54 54 54 53 51 51 50 50 50 50 50 49 50 25 36 19 20 20 18 22 22 23 17 21 16 14 7 7 13 7 11 13 17 17 15 15 16 14 11 13 19 31 34 41
54 54 54 54 53 52 50 50 51 51 51 51 49 40 37 29 20 19 20 20 22 24 22 18 22 17 18 13 4 8 11 13 13 15 19 16 17 19 22 30 36 39 42 44 43
54 53 53 54 53 53 51 50 41 38 47 24 27 35 29 26 19 18 19 19 23 23 19 23 19 16 16 16 15 13 15 15 16 16 14 22 25 27 37 39 39 40 43 43 41
53 53 53 53 53 53 51 48 45 44 30 35 37 34 28 19 20 20 25 22 22 20 22 20 18 18 20 23 22 19 18 18 18 18 15 24 26 31 35 36 37 40 41 42 41
53 53 53 53 53 50 44 42 49 48 33 23 25 23 24 26 21 21 26 26 22 20 21 19 18 20 24 23 23 26 21 21 19 20 21 24 25 29 30 32 33 36 40 41 41
52 53 52 53 48 50 43 43 49 47 20 18 20 19 23 26 21 24 24 25 24 22 22 21 25 26 25 23 25 24 27 24 21 17 12 19 21 25 30 32 35 38 39 41 41
52 53 52 52 46 50 47 54 53 45 14 18 23 25 23 24 24 23 27 29 22 17 24 25 26 26 24 24 25 25 27 24 23 22 22 20 21 26 29 30 32 36 38 40 40
52 53 52 51 51 51 57 55 39 31 16 20 23 21 19 23 25 23 24 31 30 25 25 25 28 26 26 27 26 25 27 28 27 26 21 26 24 26 28 29 32 34 37 38 39
53 53 51 53 51 57 56 38 26 27 28 18 21 24 23 23 25 26 26 25 26 23 23 26 26 27 28 27 27 26 28 24 23 22 21 28 27 29 30 32 34 35 36 37 39
54 53 51 54 60 57 46 30 27 27 22 20 23 25 22 25 27 28 26 24 26 29 26 24 24 25 25 25 24 25 24 22 21 19 19 25 25 27 31 34 36 36 36 36 37
54 52 57 55 59 50 42 35 32 27 22 21 24 24 24 25 26 25 25 24 26 27 25 25 24 28 24 25 28 26 21 24 24 28 22 24 26 27 29 29 30 31 33 36 36
49 51 47 56 54 44 40 38 35 29 28 23 21 25 22 23 25 27 28 30 29 27 28 26 20 23 23 30 29 21 24 23 22 15 15 22 24 25 27 28 28 31 33 36 37
51 33 43 58 42 35 35 38 32 30 32 24 24 22 23 23 25 28 30 32 34 32 28 32 24 23 29 26 25 25 25 26 25 23 16 19 20 28 30 29 31 33 35 35 36
49 33 54 42 22 38 35 38 30 28 31 31 32 31 25 29 32 32 32 33 37 36 24 30 26 23 24 26 27 26 26 25 17 25 27 25 22 29 29 31 34 34 34 36 37
44 48 54 43 18 27 37 34 29 28 29 30 31 33 33 32 32 35 35 37 33 33 32 30 24 21 26 29 28 25 25 30 28 24 20 16 15 31 33 32 34 34 36 37 36
46 37 42 47 42 35 32 31 32 34 33 33 31 33 32 32 36 35 35 36 31 29 34 36 31 23 17 23 23 19 21 29 26 22 22 21 20 31 33 34 35 36 36 35 34
47 33 31 24 33 41 40 33 32 30 33 32 30 32 32 32 34 35 36 35 34 32 35 34 26 28 24 27 25 23 22 23 23 24 23 22 25 33 34 35 36 36 35 34 33
43 40 39 26 29 36 38 34 32 32 32 31 29 34 33 32 33 34 32 33 32 34 37 37 29 28 24 31 29 22 22 23 23 22 23 31 32 35 35 37 36 35 34 33 32
47 48 35 43 29 33 35 34 34 33 33 34 36 35 34 36 38 38 39 38 36 34 36 33 28 24 15 30 29 20 24 27 26 30 25 24 33 35 35 36 35 33 32 31 30

GFSSW_sfc_30mbdewp_003.txt.gz
Dewpoint
53 53 53 53 53 53 53 52 51 51 52 51 51 51 52 51 52 52 41 32 39 40 32 30 28 31 32 30 25 19 16 12 11 12 10 17 24 26 39 45 43 44 45 55 59
53 53 53 53 53 53 53 51 51 51 51 51 51 51 51 51 50 46 43 41 43 45 27 25 25 30 29 27 24 21 15 12 12 12 12 15 32 37 43 43 45 43 44 54 55
53 53 54 53 53 53 52 52 52 51 51 50 50 51 51 51 47 31 39 45 44 44 28 27 25 25 25 23 20 17 10 3 6 11 14 17 21 24 41 42 44 42 44 51 54
53 53 53 53 53 52 53 52 52 52 51 50 50 50 51 51 25 31 38 49 50 37 29 26 26 25 25 22 20 11 8 2 6 7 2 6 9 29 28 40 46 43 44 46 48
52 52 52 52 52 53 52 52 52 51 50 50 49 50 50 44 32 33 49 55 44 34 27 26 25 23 19 15 18 2 3 6 8 5 4 3 6 13 17 37 46 43 41 43 44
52 52 52 52 52 52 53 51 51 50 49 49 49 50 46 26 31 31 42 40 36 33 30 28 22 26 20 14 7 3 3 6 11 10 4 2 10 13 18 47 45 43 41 41 41
52 52 52 52 52 53 52 51 50 50 49 49 49 50 47 27 34 36 33 32 33 30 26 31 30 24 16 13 6 5 1 5 6 11 10 14 13 12 21 46 45 44 43 44 43
52 52 52 52 52 52 51 50 50 49 49 49 49 50 30 34 36 30 19 18 23 32 28 19 24 22 10 11 10 9 9 7 9 15 16 11 5 15 23 46 45 46 46 46 45
52 52 54 54 53 51 50 50 49 49 49 49 48 49 22 31 23 19 20 17 21 22 23 18 21 16 14 8 8 11 7 9 12 15 16 14 15 18 17 39 38 41 42 42 44
53 54 54 54 53 50 50 49 49 50 50 50 49 38 31 22 20 20 19 18 21 23 20 20 21 15 17 7 -1 4 7 10 11 15 18 15 22 31 33 31 38 41 41 42 44
54 54 54 54 53 51 49 49 41 39 47 21 24 33 33 34 19 18 20 22 24 23 20 22 17 14 15 16 15 13 13 12 15 17 25 29 33 37 39 41 41 40 41 41 42
54 54 54 54 53 53 51 47 44 44 34 34 38 35 34 28 18 20 27 22 22 20 21 19 17 18 24 24 19 18 17 18 20 26 29 31 32 34 36 39 42 40 40 40 40
54 53 54 54 53 51 45 40 49 44 35 22 30 27 24 25 20 22 26 26 23 20 20 18 19 21 23 24 22 25 20 19 19 27 29 30 29 29 32 36 39 40 41 40 41
53 53 53 53 48 47 43 44 50 40 21 20 19 18 23 26 21 24 25 25 24 21 21 23 28 24 24 22 25 22 26 22 23 24 22 25 25 27 31 35 38 39 40 40 41
53 53 53 51 47 51 48 55 52 41 9 17 22 25 22 25 23 21 30 29 21 22 23 25 26 25 23 23 26 25 26 23 23 20 20 24 24 27 31 34 36 37 39 40 40
53 53 53 51 50 49 56 48 37 26 14 18 22 20 20 24 24 24 28 31 29 26 26 26 28 26 26 27 26 26 28 29 29 26 20 24 24 26 29 32 34 36 38 39 39
53 53 50 52 52 57 52 36 20 28 25 19 19 22 22 23 26 26 26 26 25 23 24 25 25 26 27 26 27 27 26 23 21 21 22 27 25 27 29 31 34 35 37 38 39
53 53 51 50 57 55 41 26 27 27 24 21 23 24 23 26 27 28 26 24 26 28 26 23 21 24 24 25 24 23 25 23 19 21 20 26 25 27 31 33 35 36 36 37 39
53 51 55 56 59 48 34 24 32 29 23 21 25 23 25 26 26 26 26 24 27 27 25 23 21 26 24 25 27 24 21 25 25 26 22 25 26 29 32 34 35 35 36 36 37
50 50 46 56 48 41 35 37 37 34 28 24 23 25 22 24 26 28 28 31 29 29 28 26 18 24 24 29 27 23 27 19 21 13 15 22 24 25 28 32 30 31 35 36 35
48 31 37 53 35 29 25 37 38 30 33 23 22 24 24 23 27 29 30 33 34 32 30 31 21 22 26 25 24 25 23 25 26 23 13 18 23 26 28 28 29 34 35 35 35
43 25 52 36 25 37 27 38 37 27 31 33 33 29 26 30 32 32 31 33 37 35 24 30 25 23 22 26 28 25 24 22 11 21 25 21 19 28 30 31 34 35 35 35 35
40 49 53 33 21 25 31 36 32 28 30 31 31 33 34 34 31 35 35 36 30 33 30 29 24 22 25 26 25 24 26 27 25 24 24 19 15 32 31 33 34 35 36 35 34
43 42 43 43 35 22 27 33 32 34 33 32 32 33 33 35 37 34 35 35 30 32 36 33 29 20 15 22 23 19 22 27 23 19 19 19 20 30 32 33 35 36 35 34 34
45 33 37 35 34 42 35 34 32 30 33 32 31 32 32 33 34 35 36 33 32 34 36 31 23 27 27 27 25 22 21 26 25 25 21 22 23 28 33 34 35 35 34 33 32
44 35 37 28 30 40 39 37 31 32 32 31 30 35 33 32 31 33 32 30 27 37 37 33 26 25 28 30 28 22 23 23 23 23 25 27 28 34 35 36 35 35 33 32 29
47 49 33 37 32 31 36 36 33 33 36 35 34 34 34 37 38 39 38 37 36 35 34 29 27 17 9 28 25 12 19 24 24 29 26 27 30 35 35 35 35 34 33 30 28

GFSSW_sfc_30mbdewp_006.txt.gz
Dewpoint
53 54 53 53 53 53 52 52 52 51 51 50 50 50 51 51 51 51 41 34 40 39 32 30 27 29 32 29 25 19 15 17 24 28 28 23 37 33 44 44 44 44 53 58 64
54 54 53 54 54 54 53 53 52 52 51 50 50 50 51 50 49 45 44 45 44 43 27 26 25 31 28 27 24 20 16 14 14 20 32 32 34 39 43 44 43 47 57 62 63
53 54 53 54 54 54 53 53 52 51 50 50 50 50 50 50 46 32 40 47 48 40 27 26 25 27 26 23 22 19 16 8 15 17 18 25 28 36 43 42 43 49 56 60 62
54 53 53 53 53 53 53 53 52 51 50 50 50 50 50 49 24 30 43 51 51 40 28 26 25 24 24 22 21 13 12 8 17 14 13 30 18 39 34 37 44 52 57 57 58
53 52 52 52 52 52 52 52 51 50 50 50 50 49 49 44 33 42 55 56 49 32 28 26 23 24 23 23 15 14 9 8 7 5 8 9 20 32 23 43 44 50 54 53 54
52 52 52 51 52 52 51 52 51 50 49 49 49 49 46 30 31 43 48 44 36 32 30 26 23 23 22 14 15 13 3 6 11 4 2 6 9 13 20 45 43 47 50 50 51
52 51 51 52 52 51 52 51 50 50 49 48 48 49 48 30 32 37 39 36 37 33 29 28 26 23 22 14 6 5 2 6 9 10 7 13 10 11 33 45 42 42 44 43 43
52 52 52 52 51 51 51 51 50 49 49 48 50 49 35 36 38 35 29 24 32 33 28 27 30 25 18 13 13 7 9 0 7 13 15 8 4 17 41 44 43 44 44 45 44
52 51 51 52 51 51 50 50 49 49 49 50 48 48 28 30 27 20 18 17 20 27 28 24 25 17 11 8 8 10 7 8 8 15 16 13 17 33 30 45 42 42 43 44 45
52 52 52 53 53 51 50 49 49 49 49 49 49 41 31 21 26 20 19 19 22 23 21 22 20 15 15 5 3 5 7 9 10 15 26 26 33 37 39 40 41 41 42 44 44
53 54 54 54 54 50 48 47 43 41 47 25 25 27 31 28 26 18 19 22 24 23 20 22 16 13 15 14 9 10 10 9 14 23 32 34 35 37 41 41 40 41 42 42 43
54 54 54 54 53 50 49 47 39 41 34 39 38 35 35 32 20 19 27 21 21 19 21 19 16 19 24 23 20 18 17 20 25 29 32 33 32 34 37 39 40 41 42 42 42
53 54 54 54 52 51 48 42 47 45 36 25 33 30 25 28 20 21 26 26 22 19 19 17 20 23 24 23 21 24 19 19 24 31 31 31 30 33 36 39 40 40 40 41 41
53 53 54 53 49 48 43 42 51 43 20 21 19 19 24 25 22 25 26 25 23 20 23 25 27 24 22 23 24 21 25 24 28 26 24 26 25 29 35 37 38 39 40 41 39
53 53 53 49 48 51 48 55 51 36 12 18 19 24 22 25 20 23 31 25 22 23 24 25 25 24 22 23 27 25 25 25 22 21 21 25 25 27 33 35 37 38 39 40 38
52 53 52 51 50 48 54 46 34 23 15 17 22 19 22 24 24 27 28 30 28 27 27 26 28 26 25 27 26 28 28 28 28 25 18 23 22 26 30 32 35 37 39 39 39
52 53 52 51 51 58 50 32 20 22 25 19 19 20 22 24 26 26 26 26 24 23 23 24 25 26 27 26 26 28 26 22 21 21 20 27 25 23 30 33 35 36 38 39 40
52 53 52 51 53 52 37 22 19 27 23 21 23 22 22 26 27 27 25 25 27 27 25 21 19 23 24 25 23 23 26 21 18 20 22 26 25 26 30 32 35 36 38 39 39
52 51 50 56 54 48 30 17 27 29 24 22 24 22 25 26 26 26 26 25 27 27 24 22 22 24 24 26 27 23 20 26 24 24 21 24 26 29 33 32 34 35 37 38 37
50 49 48 55 49 39 28 25 37 37 30 25 20 24 23 25 25 26 27 31 28 31 28 26 18 24 24 28 27 24 26 17 21 9 10 22 24 25 31 31 33 34 35 36 36
45 34 37 54 35 28 24 27 38 38 33 23 24 25 24 24 27 28 28 32 34 32 31 26 22 22 26 25 24 25 22 25 24 22 9 13 21 28 30 33 32 34 36 36 35
36 27 49 36 26 33 25 37 39 29 31 33 30 26 25 30 31 30 28 32 36 36 26 29 25 22 21 26 29 26 24 19 8 14 23 20 16 29 29 31 32 34 35 35 34
36 49 52 33 22 24 29 33 36 28 30 31 31 32 35 33 29 34 34 35 30 32 28 28 24 21 21 22 25 24 28 25 24 26 22 18 12 31 33 33 35 35 35 34 34
43 39 45 37 32 22 23 25 32 34 32 32 33 34 34 35 36 34 34 34 31 34 36 30 26 19 10 18 22 21 26 25 21 17 18 21 17 29 32 32 35 35 35 34 33
40 38 42 38 33 25 25 32 32 30 32 32 31 32 32 32 34 33 35 32 33 36 37 28 22 26 28 27 25 21 20 26 23 22 19 20 21 21 31 33 35 35 34 34 33
42 34 33 35 38 35 32 25 32 32 32 29 29 34 33 31 30 31 32 27 22 37 34 31 23 24 27 30 27 22 22 23 26 25 25 26 24 32 34 35 35 35 34 33 32
47 44 34 34 36 35 36 36 32 33 37 36 33 34 33 36 38 37 37 36 36 34 30 26 24 17 10 26 22 14 18 22 22 24 24 21 24 34 34 34 35 35 34 33 31

GFSSW_sfc_30mbdewp_012.txt.gz
Dewpoint
53 54 54 54 54 54 54 53 53 53 52 52 51 51 50 51 50 47 41 33 40 46 41 36 33 29 28 21 24 22 11 13 28 34 36 40 36 39 44 44 47 47 51 56 63
53 54 54 55 54 54 53 53 53 53 52 51 51 50 50 50 47 42 39 45 49 45 28 24 23 23 20 21 23 20 14 16 29 36 35 36 32 42 45 45 45 53 57 61 62
54 53 54 54 54 53 53 52 52 52 52 51 50 50 50 49 43 32 44 48 49 42 24 22 19 23 17 20 22 20 15 22 32 31 31 31 31 33 43 41 42 51 57 60 60
52 53 53 53 53 53 52 52 52 52 51 51 50 49 49 48 22 28 54 53 52 38 26 23 25 22 15 17 20 19 17 17 29 34 33 29 30 38 38 35 42 53 58 60 59
53 53 53 53 52 52 52 52 51 52 51 50 49 49 48 41 32 47 55 54 42 30 25 22 20 18 12 18 19 18 16 12 12 25 32 31 36 37 32 43 50 54 57 57 56
52 53 53 52 52 51 52 52 51 51 50 49 49 48 46 31 32 45 46 42 33 27 26 24 20 20 16 21 17 17 11 9 11 22 22 29 32 31 33 46 49 53 53 55 55
52 52 53 52 52 51 52 51 51 51 49 48 48 47 45 32 32 44 41 35 32 28 29 27 24 20 21 21 15 11 8 9 10 21 19 20 14 25 38 44 48 49 51 53 52
52 52 52 52 51 51 51 51 51 50 49 49 49 48 37 38 37 38 36 35 36 30 29 30 30 24 24 16 10 7 8 8 13 15 15 12 9 29 40 43 46 48 50 50 48
52 52 51 51 51 51 51 50 49 48 47 49 48 47 30 35 31 26 32 23 33 33 32 29 29 25 21 16 8 8 1 5 9 21 14 9 10 31 42 41 42 45 47 47 47
52 52 51 51 51 52 49 48 48 49 49 48 48 45 36 24 30 23 23 26 27 30 29 27 24 20 16 9 4 3 1 2 4 22 12 13 25 30 41 41 41 42 44 45 45
51 52 52 52 52 50 48 47 45 44 47 32 30 33 24 28 29 19 21 25 26 25 22 24 17 12 11 8 9 7 7 7 16 29 26 25 25 30 38 42 42 42 43 44 45
52 51 53 53 53 49 48 43 38 45 34 39 37 36 33 32 25 18 27 22 23 15 22 21 15 19 22 17 13 11 8 16 24 29 28 27 29 32 34 39 41 42 43 45 46
52 53 53 53 51 48 46 42 47 46 40 33 37 28 28 31 21 16 22 25 20 18 18 15 21 26 23 20 17 19 14 21 18 27 29 26 27 31 36 38 40 42 43 45 46
53 53 54 51 47 46 44 42 42 46 25 21 23 26 26 27 20 25 28 24 25 20 24 24 26 24 22 22 24 20 23 23 25 21 15 26 12 29 34 37 39 41 43 45 47
53 52 52 49 48 43 48 54 52 44 14 21 20 24 26 22 22 26 32 26 21 24 26 25 24 23 21 24 27 24 27 27 24 21 22 22 18 27 34 34 38 41 43 43 43
52 53 52 49 50 50 52 53 47 31 15 18 20 22 24 24 25 28 29 29 29 26 26 26 28 26 26 28 27 29 27 26 25 23 17 19 19 17 30 31 37 40 40 41 40
52 53 51 50 43 54 58 47 27 19 24 18 17 20 22 22 25 27 26 25 22 22 22 24 25 26 28 27 29 28 23 18 15 17 17 25 22 17 26 32 36 39 38 39 38
52 53 52 51 51 54 47 31 18 19 20 22 20 21 22 23 26 27 26 24 28 25 21 15 19 23 27 26 23 26 23 17 13 17 12 26 17 17 29 31 36 39 36 37 37
52 51 50 51 53 53 39 29 20 24 25 21 21 19 23 25 22 26 27 25 27 28 17 18 19 25 28 28 26 24 22 27 26 26 22 17 22 27 30 31 34 36 35 36 37
49 48 47 52 54 48 38 26 23 34 30 24 15 19 19 22 20 21 25 29 29 31 31 26 21 25 27 28 28 25 26 22 23 19 14 12 18 14 28 30 33 34 35 36 36
47 42 52 57 52 43 32 27 30 39 36 25 19 21 20 24 23 20 22 30 32 29 29 25 24 25 28 25 23 25 22 22 22 23 8 3 3 26 28 31 32 34 35 36 38
45 37 53 49 38 33 29 28 38 36 35 31 28 25 24 26 25 25 23 28 36 32 28 28 28 26 24 27 29 26 22 18 11 15 23 25 8 25 30 32 32 33 35 37 39
40 43 50 42 33 36 32 30 36 32 30 33 29 31 34 31 29 31 32 34 33 32 30 30 27 24 22 25 27 25 25 21 24 27 21 21 7 26 30 31 32 33 35 38 39
40 39 46 37 34 29 27 27 26 35 33 34 35 36 35 33 35 34 34 34 35 35 32 29 29 25 22 19 24 25 25 22 17 19 15 18 7 17 22 27 30 33 35 37 38
43 37 38 36 30 27 27 26 24 31 34 34 34 33 33 34 34 34 35 32 36 37 36 32 26 26 25 26 24 22 23 23 19 19 16 9 14 10 17 22 27 33 36 36 36
40 39 40 34 31 26 24 24 23 31 32 31 31 34 35 34 31 33 33 31 30 36 35 33 29 29 27 28 26 23 22 23 23 21 21 17 17 20 24 29 31 34 35 35 35
47 42 35 38 30 26 25 25 24 34 38 36 35 35 35 37 38 38 37 35 33 34 34 33 31 25 21 26 25 21 23 20 21 23 23 17 19 27 29 30 31 33 34 34 34

GFSSW_sfc_30mbdewp_015.txt.gz
Dewpoint
52 53 53 55 54 54 54 53 53 53 53 52 52 52 50 51 50 47 42 33 37 42 41 31 27 29 22 16 14 17 12 7 14 30 38 34 32 36 40 41 49 47 46 54 60
53 53 53 55 54 54 53 53 53 52 53 52 52 51 51 50 47 40 37 43 42 44 32 26 26 22 17 16 15 11 7 9 30 42 36 34 35 37 37 39 44 48 52 57 59
52 53 53 53 53 54 53 53 52 52 52 52 52 51 50 49 43 32 46 44 42 45 26 20 19 16 15 14 15 11 15 19 33 29 33 33 34 33 37 43 42 48 53 55 58
53 52 52 53 53 53 53 52 52 52 52 52 51 49 49 48 29 35 54 48 42 40 26 18 16 16 16 13 14 15 16 20 30 25 25 26 29 34 46 44 48 48 53 52 55
54 52 53 53 53 53 52 52 52 52 52 51 49 49 48 43 35 49 55 54 40 37 24 17 17 17 13 11 12 18 20 20 25 30 28 33 39 32 36 38 44 52 53 51 52
54 52 53 53 52 52 52 52 51 52 51 49 49 48 47 36 29 41 37 37 33 31 21 18 17 14 11 13 15 16 18 14 21 24 27 29 28 25 34 38 44 47 44 45 45
54 53 52 53 52 52 51 52 52 52 50 49 48 47 43 34 30 39 34 28 29 24 20 22 21 19 20 19 19 14 11 15 22 23 25 30 16 26 37 39 41 41 42 44 43
54 53 52 52 52 51 51 51 51 50 49 48 48 47 39 35 32 34 36 33 31 27 26 29 27 23 24 19 16 11 10 14 18 22 23 20 12 27 34 37 38 40 42 43 44
54 53 52 52 52 51 51 51 49 49 48 48 49 47 35 34 29 25 30 27 32 30 29 28 29 25 23 19 12 9 7 10 15 17 20 14 13 29 32 36 38 41 44 44 44
54 52 52 52 51 51 51 49 49 48 48 47 46 45 38 24 26 21 27 27 29 30 29 28 25 24 21 16 8 9 6 6 10 14 11 4 17 26 30 31 37 38 42 43 44
53 52 52 52 52 52 48 47 43 44 44 34 30 29 23 26 27 20 21 23 28 27 22 25 20 16 15 14 11 8 4 2 6 12 6 6 17 19 30 31 32 34 38 41 43
53 52 51 52 53 51 49 39 38 46 38 34 31 29 29 28 23 17 20 20 23 19 23 22 20 17 13 11 7 6 6 9 14 15 20 12 15 22 28 30 33 34 35 38 42
52 52 52 53 52 49 46 40 45 45 40 30 29 28 24 29 19 17 18 19 19 18 22 22 18 19 16 10 9 10 5 15 13 19 20 16 19 26 28 31 36 37 37 39 43
52 52 53 52 47 46 43 41 42 42 33 23 25 25 25 24 19 21 20 20 17 18 18 28 23 17 14 13 14 15 19 16 15 19 14 17 10 22 29 31 33 36 38 41 43
52 53 53 49 51 41 47 48 46 50 21 20 20 25 22 19 15 21 24 20 17 18 19 22 21 19 14 20 23 26 23 21 18 16 19 16 13 28 29 27 31 35 38 41 45
53 53 52 50 48 48 51 56 52 37 18 18 19 19 21 21 18 18 19 22 23 20 20 29 25 22 22 26 24 26 24 23 20 17 16 13 15 18 26 26 31 36 40 42 44
53 52 52 50 42 51 56 52 35 23 21 14 15 17 18 16 18 20 18 18 14 16 17 20 20 26 25 23 26 22 20 15 12 12 13 18 17 15 18 27 29 36 39 42 42
52 53 52 50 49 55 56 43 25 19 18 16 12 16 17 17 16 18 13 12 15 20 19 15 20 23 25 22 20 22 17 15 10 11 9 21 14 13 25 25 28 36 38 41 39
52 51 50 50 52 54 48 35 27 13 18 16 14 14 16 18 17 19 19 14 16 19 16 14 17 24 26 26 22 19 20 22 21 23 19 12 10 19 28 28 30 35 38 38 37
48 49 46 50 53 52 42 31 24 25 22 17 13 15 16 18 15 16 19 21 24 27 27 19 17 21 26 27 27 25 24 19 16 15 13 8 10 6 25 26 30 34 36 37 36
47 42 41 51 52 46 35 30 23 29 27 20 14 14 16 17 17 15 17 25 28 27 26 19 18 24 26 23 18 24 19 19 21 22 15 6 7 17 16 26 28 32 35 36 36
46 38 53 55 40 40 35 29 25 30 34 26 25 17 18 18 20 17 14 18 29 28 20 20 21 24 23 26 27 26 22 21 17 13 18 23 12 19 23 25 29 30 33 35 36
44 43 55 53 39 40 33 27 26 30 29 28 22 21 20 19 18 18 19 36 36 31 23 29 21 22 22 25 25 20 20 21 18 25 15 19 12 21 23 24 26 29 32 35 36
40 38 48 48 42 35 30 26 27 33 29 28 23 27 27 27 28 27 28 34 35 32 32 30 22 21 19 20 22 23 19 20 19 17 14 14 10 13 18 20 21 26 29 33 35
39 35 39 40 39 33 30 28 23 28 31 32 31 27 25 25 28 29 32 34 35 36 31 31 26 23 23 25 22 19 18 19 17 16 14 14 5 4 8 13 17 22 28 29 35
37 34 37 39 36 32 30 25 23 26 30 31 28 25 25 27 29 26 32 32 32 35 34 33 28 29 29 26 24 21 20 16 16 17 13 12 11 11 17 18 22 23 29 30 34
44 44 38 40 36 31 30 25 24 28 37 32 28 30 29 35 38 38 37 34 33 35 34 34 34 28 20 27 26 24 25 20 16 17 17 15 15 18 23 23 23 24 29 31 33

GFSSW_sfc_30mbdewp_018.txt.gz
Dewpoint
53 54 53 53 54 53 54 54 53 53 53 53 52 51 52 51 50 46 42 37 37 42 40 34 28 26 26 20 17 10 8 10 12 28 42 43 35 36 42 44 41 49 56 56 61
54 53 53 52 53 53 54 54 52 53 53 52 52 51 52 50 47 42 39 43 43 42 33 30 24 22 23 18 15 11 12 12 39 42 42 43 41 35 36 44 46 49 53 59 60
54 53 53 52 52 52 53 54 53 52 53 52 52 52 51 50 44 35 42 44 41 40 28 26 23 22 17 15 14 12 10 10 41 42 42 43 38 37 35 37 48 51 53 56 57
54 54 53 53 52 52 52 53 52 52 53 51 51 50 50 48 32 35 51 46 42 36 31 28 18 17 14 14 13 12 9 15 35 39 40 37 39 36 34 37 44 50 51 54 55
55 54 53 53 52 52 51 51 52 51 51 51 50 49 48 44 38 47 55 48 37 35 31 21 15 14 14 14 12 11 17 18 36 36 38 38 37 38 38 38 43 48 50 51 53
55 54 53 52 52 51 51 51 51 51 52 50 49 49 47 37 30 42 43 40 26 30 27 16 16 16 14 10 9 13 19 19 27 38 31 37 33 42 41 43 46 49 46 48 47
55 54 53 53 52 51 51 50 51 52 51 49 48 47 42 35 32 37 32 28 29 30 20 19 20 18 18 15 16 17 17 15 22 24 31 32 34 29 42 44 43 41 42 42 42
54 54 53 52 52 52 51 50 51 51 50 49 48 47 40 37 35 32 34 30 27 27 22 26 26 23 23 25 18 15 15 17 18 21 26 30 19 26 36 36 37 37 38 39 39
54 54 53 52 52 51 51 51 51 50 49 48 49 47 37 35 31 26 30 31 30 28 27 27 27 25 24 22 15 12 11 15 19 20 21 20 17 25 34 36 38 39 40 41 40
54 54 53 52 51 51 51 50 50 49 48 46 44 41 41 27 25 20 25 27 29 29 28 28 26 23 23 19 12 11 11 12 13 14 19 13 18 25 28 40 37 38 39 41 42
54 54 52 52 52 52 49 47 45 45 44 32 32 31 21 22 25 21 23 26 28 29 26 26 23 19 21 19 17 15 12 11 10 14 11 7 16 22 26 30 34 38 40 42 43
54 53 52 52 52 52 49 44 40 45 42 38 26 31 28 28 24 19 20 22 27 24 25 19 19 21 22 19 17 11 11 7 9 8 9 6 12 16 24 26 31 34 39 41 42
53 53 52 52 53 51 47 41 42 43 39 33 24 25 26 25 21 17 18 20 23 21 22 26 29 30 17 18 12 9 12 15 11 11 5 22 11 15 20 26 28 31 33 36 41
53 52 52 53 48 48 45 43 43 45 35 27 24 25 25 25 19 18 18 19 26 23 23 24 29 23 15 10 10 16 23 18 16 19 14 22 15 20 29 22 26 30 33 35 39
53 52 52 51 51 43 47 40 46 48 26 23 23 23 22 20 15 18 20 19 19 26 24 24 28 18 14 24 23 21 22 22 16 12 23 23 21 28 30 29 27 32 36 37 41
52 52 52 52 50 50 50 55 51 41 25 20 20 21 18 17 14 15 20 18 18 17 24 24 28 25 27 24 23 27 25 22 14 14 22 25 24 25 31 30 32 31 35 39 42
52 53 52 49 45 47 49 54 38 26 21 17 18 18 17 16 16 15 17 15 16 15 22 21 18 19 24 16 21 18 14 15 24 23 18 17 21 24 29 33 41 42 36 40 45
52 53 52 50 49 51 54 50 29 22 21 12 14 16 15 16 14 14 17 12 15 15 15 24 22 18 19 16 26 25 13 18 23 25 20 24 19 15 30 31 41 39 39 42 44
52 52 50 51 52 54 51 40 31 22 20 16 12 13 13 14 14 14 13 13 13 16 27 29 25 30 24 21 19 13 16 19 19 31 20 13 10 20 25 26 24 36 39 41 42
49 48 46 51 53 51 48 38 31 27 18 17 10 12 12 14 13 15 14 14 12 18 33 36 32 28 24 24 23 22 20 20 17 13 12 10 9 18 24 24 27 32 38 40 41
46 42 42 52 53 48 40 38 34 28 23 19 13 11 12 16 13 13 16 23 25 23 23 20 25 21 25 21 13 22 18 18 15 21 21 17 11 14 18 22 25 29 38 39 39
44 37 49 54 39 36 40 35 33 27 25 25 20 13 13 17 15 14 14 18 24 22 22 20 18 19 21 22 23 22 24 17 22 17 21 25 18 17 19 19 24 27 32 38 38
41 42 53 50 31 37 39 35 32 28 28 29 22 21 17 17 17 17 16 36 35 27 25 25 20 18 20 24 25 22 17 18 21 26 24 20 19 21 19 19 20 24 29 35 37
40 40 51 50 33 36 37 31 29 29 26 27 25 22 19 17 19 19 20 34 34 32 32 33 23 18 22 20 24 23 21 16 17 23 22 18 13 14 18 20 21 24 26 30 35
43 38 45 42 41 37 37 31 27 25 27 28 24 19 24 21 21 24 24 35 35 36 32 30 24 22 20 20 24 24 20 19 16 19 18 20 14 12 9 14 15 20 26 26 27
42 37 41 39 38 38 39 34 28 25 28 28 27 23 25 25 24 24 26 34 32 36 31 33 31 30 29 26 24 22 22 21 18 15 16 15 14 14 19 21 22 21 21 27 26
44 47 40 40 38 39 40 35 30 26 27 28 28 26 24 33 34 38 38 35 32 36 33 34 34 31 26 27 27 22 25 23 22 18 15 15 18 16 17 22 23 24 23 27 29

GFSSW_sfc_30mbdewp_021.txt.gz
Dewpoint
55 54 54 55 52 52 52 52 54 53 54 53 52 52 52 52 51 47 42 38 42 42 42 35 32 31 30 27 24 19 13 8 15 38 39 44 44 48 45 42 46 51 56 58 58
56 55 54 54 52 52 52 52 54 53 53 53 52 53 53 52 48 45 42 43 45 43 35 32 30 25 23 23 22 18 14 12 38 43 41 41 40 42 42 45 47 43 54 59 59
56 55 54 54 53 51 52 52 53 53 52 53 51 52 52 51 46 41 48 48 48 41 31 30 29 24 21 23 21 16 13 33 38 42 43 42 40 43 38 46 46 43 51 58 58
56 55 55 54 54 51 52 51 51 51 52 52 52 51 51 49 30 38 48 51 45 39 34 27 28 23 21 16 16 14 14 24 39 42 42 43 42 37 36 46 48 47 54 56 54
55 55 55 54 53 52 51 51 51 51 50 51 51 50 48 45 43 49 52 49 40 34 31 30 30 22 17 15 16 14 15 36 37 39 39 39 37 37 38 44 50 54 54 54 54
55 55 55 54 53 53 51 51 50 52 51 52 50 50 47 40 43 51 44 39 30 33 32 32 26 16 15 16 16 14 13 35 39 40 38 31 35 38 39 43 48 50 53 52 48
55 54 55 54 53 53 51 51 50 51 52 51 50 48 44 34 37 41 38 33 27 28 28 28 22 26 24 23 26 18 15 19 35 39 38 32 35 36 40 43 47 49 51 51 44
55 54 54 54 52 52 52 51 51 51 51 51 50 47 40 41 40 37 32 29 28 29 30 29 29 26 24 25 24 16 16 17 22 33 36 31 30 36 41 43 47 44 44 45 43
55 54 54 53 52 52 51 51 52 51 51 50 47 47 41 42 36 35 33 32 28 27 27 27 27 26 26 24 22 15 12 16 19 22 28 26 25 38 43 44 42 40 40 40 40
55 54 54 53 52 51 52 51 50 50 49 48 46 41 40 33 33 28 28 31 30 30 28 27 26 25 25 23 16 15 12 15 18 21 21 21 23 40 43 40 40 42 43 41 40
55 54 54 52 52 52 51 49 46 46 45 39 34 34 29 30 27 24 26 26 30 29 27 27 24 22 24 21 21 17 13 13 14 18 17 20 23 32 40 39 39 43 46 42 44
55 54 53 52 52 52 50 47 42 43 42 43 38 34 31 32 25 25 24 25 29 27 31 26 23 25 23 22 22 19 19 17 14 13 11 19 22 24 40 41 42 45 41 43 44
55 54 53 52 52 51 48 46 44 45 42 39 40 36 27 29 26 24 20 21 26 27 24 23 26 27 26 26 22 20 21 16 12 8 7 13 16 21 25 27 39 42 38 40 45
55 53 52 52 48 49 48 48 48 46 38 33 35 26 23 26 25 24 21 21 25 25 24 25 27 26 26 25 19 16 22 23 19 18 12 22 16 25 26 26 28 38 44 44 47
55 53 52 51 50 48 48 51 46 46 26 23 30 26 24 25 22 19 21 21 23 26 26 24 25 25 26 23 19 20 20 19 21 19 22 21 18 24 28 22 25 30 33 39 46
54 53 52 51 51 49 50 50 53 41 29 26 25 22 22 23 23 19 19 20 28 26 26 25 26 28 27 25 19 25 23 24 26 23 18 21 21 27 26 24 28 30 34 38 45
54 53 51 50 47 51 51 50 39 35 27 22 22 21 21 21 19 17 19 18 17 21 22 23 22 27 29 25 24 25 21 20 16 20 20 30 24 22 30 29 30 31 32 39 47
54 52 51 50 51 52 54 47 35 29 27 20 21 21 20 19 18 17 18 18 17 18 24 23 22 30 30 24 22 22 24 19 17 21 24 30 25 23 26 32 34 36 37 42 48
53 51 50 50 51 51 50 39 32 33 23 24 18 18 17 17 16 16 15 19 17 15 18 26 27 31 31 32 24 20 21 26 29 33 30 28 24 26 31 33 37 38 38 45 46
50 49 48 50 52 50 45 37 37 33 31 24 20 15 15 16 16 16 15 15 17 17 30 34 24 34 31 34 26 22 23 21 25 19 17 14 17 24 26 28 32 39 38 44 43
50 45 46 51 53 48 37 38 38 37 33 28 23 14 14 17 19 17 16 17 22 29 32 33 29 32 34 27 21 23 20 19 20 22 18 18 14 19 22 26 29 37 41 42 42
48 40 47 52 42 41 37 38 39 37 37 35 24 18 15 20 19 15 17 30 26 28 30 32 31 27 27 25 24 22 25 27 17 16 23 22 19 21 19 23 27 30 40 42 41
45 43 50 45 32 36 35 38 39 37 36 32 27 24 24 20 24 15 27 36 32 28 26 30 22 15 15 22 27 23 22 19 28 28 21 18 17 21 19 18 22 26 30 40 40
44 38 47 47 33 34 31 34 38 38 37 34 29 29 27 23 27 24 32 34 35 33 32 31 26 19 15 18 25 24 24 23 20 20 20 22 20 18 18 20 22 23 26 36 39
45 36 42 40 41 32 33 34 36 36 35 32 29 28 26 19 20 22 35 35 36 34 32 31 24 23 25 29 27 24 25 25 21 21 18 19 20 20 19 21 22 25 25 26 31
42 37 44 41 41 38 34 35 35 33 33 30 29 26 26 23 25 25 33 34 32 35 31 33 29 30 27 28 28 25 25 24 23 22 19 19 19 20 23 23 21 21 26 27 27
43 46 42 42 41 37 32 36 36 33 32 28 31 30 27 32 35 39 38 41 37 34 33 33 32 29 26 26 23 21 20 23 23 24 23 18 19 23 24 26 26 26 27 28 29

GFSSW_sfc_30mbdewp_024.txt.gz
Dewpoint
56 55 55 54 54 52 52 52 52 53 53 53 53 54 53 53 51 48 39 35 41 41 41 34 33 31 30 28 28 19 17 13 11 36 37 43 44 46 45 45 45 52 56 57 60
56 56 56 54 54 53 52 52 51 52 53 53 54 53 53 52 48 46 44 46 45 47 37 28 31 26 21 23 23 20 15 15 31 42 39 41 42 43 43 44 46 54 57 58 57
56 56 55 55 55 54 52 52 51 51 51 52 53 53 52 51 46 41 48 48 48 46 33 32 30 25 21 22 22 19 16 30 39 42 42 39 41 43 45 46 44 53 54 56 56
56 55 55 55 55 54 53 51 51 51 52 51 52 52 51 49 29 35 51 53 49 43 34 27 25 24 20 20 20 17 16 29 40 42 42 40 42 37 38 46 46 57 57 56 55
56 55 55 55 55 54 53 52 51 51 52 52 52 51 48 42 37 49 53 53 43 36 30 25 30 28 21 17 16 15 22 34 40 41 41 42 38 38 45 45 50 57 57 55 55
56 55 54 55 54 54 53 52 51 51 52 53 52 50 47 28 44 47 45 40 35 32 32 31 30 26 18 18 17 22 31 35 38 36 36 35 38 39 45 48 51 54 56 55 55
57 55 54 54 54 53 53 52 52 51 52 52 51 48 44 21 43 45 38 31 29 29 26 30 28 26 25 22 25 21 29 38 38 37 34 35 33 38 44 48 50 50 53 55 56
58 56 55 54 54 52 52 52 51 52 52 51 50 47 31 42 43 37 36 30 29 28 27 29 29 27 24 26 25 17 20 27 36 38 36 32 28 36 43 47 49 50 52 50 56
58 56 55 54 53 52 52 52 52 52 52 51 47 47 33 43 40 41 36 30 28 28 29 28 27 26 25 23 21 19 12 17 30 37 34 31 29 35 42 46 47 46 47 46 53
57 57 55 54 53 52 51 51 51 51 49 49 46 38 37 31 36 32 34 33 30 29 28 28 26 25 25 22 16 16 13 16 18 22 31 27 27 38 42 45 43 43 43 42 47
57 56 54 53 52 51 50 48 44 45 44 32 27 30 28 32 32 27 28 30 30 29 26 29 24 22 22 24 23 20 20 15 15 19 20 24 33 38 42 44 41 42 43 42 45
56 56 54 53 51 52 50 44 43 42 39 43 42 39 37 36 28 27 27 25 28 26 31 28 24 25 27 25 25 25 21 18 19 18 17 23 34 40 42 40 38 41 43 44 44
56 56 54 52 52 51 48 45 46 44 39 40 43 41 39 33 28 27 25 26 28 27 27 22 23 27 26 24 25 24 21 21 18 9 18 20 22 38 39 40 39 42 43 44 43
56 55 53 52 46 48 47 49 49 46 35 31 35 37 28 25 25 28 24 23 25 26 26 24 27 26 26 25 26 22 21 22 19 16 8 21 14 25 33 37 39 41 44 42 45
55 55 52 49 48 49 48 49 48 47 9 26 35 32 23 24 24 21 25 22 23 25 24 23 25 26 24 25 24 20 22 21 21 21 21 20 18 19 27 27 35 41 43 40 42
54 54 52 50 50 47 48 50 51 38 14 28 30 23 22 23 24 23 17 25 28 26 27 24 27 26 26 27 26 24 24 26 28 24 18 27 21 19 25 22 28 36 42 42 43
53 54 51 50 43 52 52 49 39 30 28 26 23 23 21 22 23 23 20 21 22 21 22 24 24 26 30 24 25 25 21 16 16 17 16 29 24 22 25 28 26 25 33 38 45
53 53 52 50 50 51 53 46 33 31 30 28 24 23 21 22 22 21 18 17 20 22 22 19 22 28 31 28 26 25 22 17 13 17 20 30 24 21 27 29 31 31 37 45 48
53 51 51 50 51 50 49 38 30 34 28 23 22 22 21 22 18 19 18 18 18 19 17 25 25 33 33 33 31 26 20 26 27 33 27 26 27 25 30 32 32 37 40 47 49
48 49 49 51 50 48 44 35 36 37 34 27 21 21 19 19 17 17 16 19 19 19 24 27 22 31 31 31 30 29 25 22 26 18 18 17 18 23 27 28 32 36 37 46 48
47 43 48 51 49 43 37 35 36 36 37 34 28 25 18 17 17 18 16 17 19 28 29 33 25 28 32 27 25 24 21 21 24 21 15 17 15 18 27 28 27 30 38 43 46
44 37 49 51 38 38 38 37 36 36 38 38 36 31 20 18 18 18 18 18 25 29 25 30 29 27 26 27 30 29 23 22 17 16 24 22 20 23 23 26 29 33 38 42 45
40 42 49 47 33 34 37 37 36 34 36 37 33 31 25 20 18 21 23 35 33 29 28 30 26 21 24 25 28 23 23 26 27 25 20 16 17 23 20 19 25 30 39 42 44
40 37 44 44 38 31 34 35 36 35 35 38 37 36 30 24 27 27 31 34 36 31 32 30 24 17 15 15 23 24 25 24 25 20 21 21 19 22 22 19 20 25 34 41 43
42 35 38 36 38 33 32 34 34 32 36 35 33 35 33 24 26 23 33 34 36 33 33 29 22 24 23 28 27 25 24 26 23 23 19 19 22 20 20 19 21 23 26 36 40
37 38 40 39 37 35 32 31 31 31 32 31 34 33 32 25 24 25 33 33 29 34 30 33 23 30 24 28 27 24 24 25 24 23 23 22 20 23 23 22 23 25 26 27 30
41 44 41 36 38 36 31 31 28 29 33 32 32 32 31 28 32 32 36 34 34 31 32 31 30 27 21 26 24 23 23 22 21 24 24 21 22 26 26 26 26 28 28 29 32

GFSSW_sfc_30mbdewp_027.txt.gz
Dewpoint
56 56 55 56 55 54 53 53 53 52 51 52 52 53 53 53 52 48 37 34 43 44 42 34 33 33 31 28 29 19 18 14 13 26 35 43 43 46 46 46 54 56 56 59 60
56 56 56 56 55 54 54 53 52 52 51 51 52 52 53 53 49 44 43 45 47 45 34 27 30 26 22 24 24 21 17 16 17 38 37 41 42 43 43 49 52 55 58 59 59
56 56 56 55 55 55 54 53 52 51 51 51 53 53 53 52 44 38 51 49 48 51 32 31 28 26 21 22 22 20 18 18 36 42 42 39 41 43 44 43 51 53 55 57 56
57 56 55 55 55 55 54 53 52 51 51 52 52 53 52 49 22 34 51 53 50 48 34 26 24 24 21 20 21 19 17 26 34 41 41 40 40 37 43 47 53 54 55 55 55
57 56 55 55 55 55 54 53 53 52 51 51 52 52 48 35 24 48 54 55 50 38 31 27 29 28 21 19 18 16 16 22 35 42 42 42 38 40 47 55 54 55 54 54 54
58 56 55 55 55 54 54 53 52 52 52 52 52 51 46 15 41 49 48 44 37 33 27 28 29 29 26 20 19 19 30 36 39 40 39 38 40 40 45 56 55 55 51 48 54
58 57 56 55 54 54 53 52 52 52 52 52 51 48 44 17 44 45 41 37 32 30 29 32 31 27 26 21 26 28 33 36 36 38 36 39 38 40 45 54 55 54 53 51 54
58 58 57 55 54 53 53 52 52 52 52 52 51 47 34 37 44 42 39 34 30 29 27 27 29 28 25 25 25 19 26 20 31 37 37 32 31 39 46 49 52 54 54 54 54
56 58 57 55 54 53 52 51 52 52 52 52 48 47 26 39 38 42 39 33 29 28 28 29 27 26 25 22 19 18 15 17 27 37 35 31 30 38 45 47 49 50 54 55 55
54 57 57 55 53 52 51 51 51 51 49 49 46 35 31 28 33 35 39 35 30 29 28 28 27 25 25 22 16 18 16 17 21 31 36 32 27 40 44 47 48 48 49 53 55
54 56 57 55 53 51 50 47 41 44 43 28 23 23 25 34 34 31 33 33 31 29 26 29 24 21 22 24 23 23 21 21 20 19 32 32 28 39 43 46 46 45 46 46 54
52 55 56 54 52 51 50 42 41 43 36 40 41 38 38 38 37 29 30 27 29 26 30 27 24 25 27 26 26 24 23 21 21 17 22 23 27 39 42 44 44 44 44 44 51
50 54 56 54 51 51 47 44 46 46 34 34 42 41 39 40 34 28 27 28 26 26 28 24 22 27 26 23 23 24 23 21 21 14 21 24 26 38 40 40 40 41 43 43 45
49 53 55 52 48 47 47 49 49 47 28 28 39 38 39 31 26 30 26 26 27 25 27 25 26 26 26 24 25 22 23 22 21 13 11 18 12 27 39 40 40 38 41 44 43
50 52 54 51 46 49 48 49 48 46 3 19 35 36 30 24 25 26 25 25 21 26 25 23 25 25 24 23 26 22 23 22 22 20 20 24 18 19 33 37 38 38 38 43 44
50 52 54 50 49 47 47 51 49 34 6 20 32 29 23 23 24 22 23 24 25 25 27 24 27 26 25 27 27 25 24 25 27 24 16 25 21 19 25 31 35 38 37 41 42
48 52 52 51 46 51 51 50 39 26 22 26 28 23 20 21 21 23 19 23 21 21 21 23 24 27 29 24 26 25 21 12 13 16 15 28 24 21 22 26 27 28 34 40 43
48 51 52 51 50 50 52 44 32 31 28 33 25 23 18 22 21 23 21 19 22 21 22 20 20 27 30 26 25 25 22 17 9 13 18 30 22 22 27 29 30 30 32 38 43
47 50 51 52 51 49 48 37 31 31 33 20 24 21 21 21 20 22 20 19 18 23 17 23 22 32 32 32 28 25 22 25 26 31 25 22 27 23 28 31 35 34 38 38 43
45 44 47 51 50 46 43 35 35 34 37 34 22 22 19 21 20 20 20 20 19 21 23 25 18 30 31 32 30 27 28 23 26 19 17 20 19 17 25 27 35 36 38 44 48
44 40 45 51 50 42 35 35 36 37 37 36 32 24 21 20 20 19 18 18 21 21 25 30 20 22 31 27 21 25 23 22 24 21 15 15 17 19 24 27 27 29 37 44 48
41 34 49 50 41 39 33 35 36 35 37 37 38 36 28 21 19 18 17 17 22 28 23 28 24 17 19 28 30 29 25 21 18 16 24 22 19 22 22 26 27 28 34 39 48
36 39 49 46 35 35 34 34 36 34 34 35 36 35 30 22 18 20 20 27 30 28 25 30 26 19 20 23 27 26 25 27 26 24 19 16 15 22 22 21 22 28 29 38 45
37 34 42 43 38 35 33 34 35 37 35 36 37 38 34 28 25 21 23 34 35 32 32 28 26 20 18 19 23 25 25 26 25 21 20 20 18 20 21 20 21 21 28 37 43
39 33 37 35 36 37 33 33 34 34 36 33 33 36 35 30 26 28 34 35 35 35 32 28 22 21 21 20 26 25 24 26 24 23 21 22 22 22 23 22 21 22 26 34 42
35 36 39 37 36 35 34 32 32 35 35 32 28 30 29 32 28 24 32 32 30 33 31 31 24 26 24 28 27 25 25 25 25 24 24 23 22 23 23 26 26 24 28 32 37
39 42 41 35 35 34 33 32 31 35 35 33 31 30 34 34 34 31 35 32 31 30 30 29 26 25 19 26 24 22 23 23 23 23 23 20 22 25 26 27 29 28 30 33 36

GFSSW_sfc_30mbdewp_033.txt.gz
Dewpoint
58 57 57 56 56 55 55 55 54 53 53 53 51 52 53 54 52 47 35 35 42 45 46 37 33 32 29 30 25 22 19 15 14 13 25 43 42 47 52 52 53 54 56 57 58
59 58 58 57 56 55 55 55 54 54 54 53 53 52 53 53 49 41 40 45 46 49 32 30 27 27 24 25 26 23 19 16 17 17 33 41 42 44 48 51 52 55 57 58 57
60 59 58 57 56 55 55 55 54 54 53 53 53 53 53 52 37 36 50 47 48 50 30 31 27 23 19 23 23 21 18 19 18 21 41 39 41 45 47 46 51 52 55 56 56
56 58 59 58 56 56 55 54 54 53 53 53 52 53 53 48 23 33 57 52 52 47 30 28 26 24 21 20 22 20 21 20 27 42 41 39 40 44 46 46 52 56 56 56 55
54 55 57 58 57 56 55 54 54 53 53 53 52 52 47 27 11 52 57 53 50 39 26 25 26 26 23 21 20 21 19 22 25 41 42 42 42 45 49 54 56 56 55 55 55
52 54 55 57 58 56 55 54 53 53 52 52 52 51 41 15 41 52 49 44 40 35 28 28 29 29 27 26 20 21 24 36 40 41 42 44 47 46 51 54 54 55 54 55 55
51 52 54 56 58 57 55 54 53 53 52 52 52 48 40 18 42 48 42 37 38 32 24 27 31 28 27 25 25 29 31 36 37 40 39 41 37 44 51 53 52 53 51 53 54
51 51 51 52 55 57 56 54 53 53 53 53 51 47 27 35 41 42 42 37 35 35 30 27 30 28 27 27 23 22 24 22 33 39 39 33 33 49 52 50 49 50 50 51 53
51 51 50 51 53 55 55 53 52 52 53 52 48 46 20 31 28 35 38 35 31 29 28 28 29 27 26 22 19 20 15 18 29 38 36 34 33 47 52 50 48 49 48 49 52
49 51 51 52 53 55 54 52 51 50 51 50 46 35 25 22 33 40 40 34 30 28 28 28 28 25 24 21 16 20 20 21 23 33 35 32 31 46 51 50 49 49 49 50 50
47 49 51 51 54 55 51 47 37 40 46 36 28 22 17 32 40 33 39 35 31 29 27 29 25 21 17 23 22 23 22 21 22 21 30 32 32 41 49 51 51 51 51 52 51
47 48 49 49 54 52 49 45 39 43 40 41 40 36 32 37 34 36 37 31 30 27 29 28 26 25 24 26 24 25 23 21 23 22 28 27 32 37 45 48 48 49 51 51 52
47 47 48 47 53 51 49 46 47 48 43 39 40 38 37 38 32 32 33 30 28 27 28 25 22 27 26 26 25 24 22 22 22 19 23 24 25 35 41 43 45 47 49 50 51
45 48 48 49 50 49 47 47 49 48 32 23 32 37 40 38 29 35 31 29 27 25 28 26 28 25 26 24 24 20 24 23 23 18 13 21 13 18 38 41 42 44 46 48 49
45 46 48 49 48 45 46 49 49 43 9 21 36 39 40 30 25 29 29 27 25 26 27 23 25 25 25 24 25 22 25 25 23 20 22 23 16 18 33 37 41 43 44 46 47
46 44 47 48 49 49 49 50 48 32 15 13 35 35 35 30 25 26 25 26 27 27 27 25 27 27 25 26 26 26 25 22 26 24 18 23 22 19 21 26 34 40 43 44 44
46 44 44 47 46 50 50 47 36 28 24 16 30 31 30 23 23 24 24 23 22 20 21 24 24 26 28 25 27 25 22 19 11 18 15 28 25 21 22 24 27 31 40 43 44
45 45 45 47 51 50 49 41 29 28 23 27 26 27 26 22 22 22 23 22 23 21 21 19 17 25 29 24 22 24 23 18 12 11 14 28 20 16 26 29 30 31 31 34 42
45 45 44 46 48 50 45 33 27 31 30 24 22 24 22 21 20 22 23 23 22 23 17 20 19 29 31 31 26 24 22 25 25 30 24 22 23 23 22 25 33 35 36 35 34
44 42 40 46 49 48 40 29 32 32 32 36 18 23 22 19 20 21 22 23 22 24 23 22 17 29 31 32 32 27 28 24 25 18 17 20 21 18 17 20 27 30 31 37 40
42 37 38 45 46 42 31 31 32 35 35 34 35 27 24 21 20 21 21 21 22 22 24 26 20 21 30 27 23 27 26 25 25 23 17 16 17 22 20 20 27 26 30 35 40
39 30 41 43 35 36 32 32 34 31 37 37 37 37 34 24 21 20 21 21 23 24 23 26 23 18 20 26 27 26 26 25 20 20 23 22 19 24 24 23 24 26 26 33 37
34 35 43 40 29 30 32 32 33 34 33 36 35 35 36 29 21 21 22 23 26 23 23 26 21 16 17 23 28 27 27 26 26 25 22 20 19 22 23 23 24 23 24 29 37
36 30 38 38 33 31 32 30 30 34 33 35 36 36 34 31 30 22 22 28 28 26 28 26 23 17 15 16 22 24 26 27 26 23 23 22 22 23 24 23 24 25 26 25 27
37 31 36 30 31 34 31 28 30 30 33 35 34 34 33 28 28 26 26 34 34 34 29 25 18 22 20 19 22 22 24 27 25 25 23 23 23 24 24 25 25 25 26 28 34
33 33 32 33 30 31 32 31 29 31 29 32 28 32 33 33 27 28 32 33 30 35 29 29 20 22 20 25 24 23 24 27 27 26 25 24 24 26 26 26 26 27 34 38 39
39 38 31 30 31 30 27 30 30 32 32 31 34 33 33 31 35 36 33 32 33 32 31 28 25 23 19 27 26 23 25 25 26 27 26 22 24 26 25 26 28 35 36 35 35

GFSSW_sfc_30mbdewp_039.txt.gz
Dewpoint
57 57 59 59 58 57 57 56 55 55 55 55 54 54 54 54 53 43 38 37 37 38 42 29 29 27 24 20 20 16 12 8 12 15 23 29 34 43 46 45 49 53 56 57 59
54 55 56 57 59 58 57 56 56 55 55 55 54 54 54 54 47 34 42 41 42 41 33 23 22 24 19 19 18 16 12 10 15 15 18 22 33 39 41 44 49 54 57 58 58
51 52 53 55 57 58 58 57 56 55 55 54 54 54 54 52 39 29 46 43 45 45 29 19 16 18 16 17 17 17 15 14 14 20 22 24 32 39 39 39 46 53 55 57 57
51 50 50 51 55 57 58 57 57 56 55 54 54 53 53 46 18 40 51 47 48 39 23 19 16 17 17 16 17 16 17 17 17 20 26 31 35 37 43 47 52 55 55 56 55
50 51 50 50 52 55 56 57 57 56 55 54 54 53 48 33 25 47 56 50 39 35 23 18 18 20 17 17 18 18 19 21 25 27 30 36 36 38 45 52 54 55 55 54 54
49 49 51 50 50 52 54 55 56 56 55 54 54 52 42 30 26 42 42 37 32 28 26 26 25 24 23 20 20 21 22 27 28 31 36 35 37 40 46 49 52 54 54 55 53
47 49 49 51 51 51 52 53 54 56 55 54 53 49 38 30 29 38 38 32 29 27 25 25 27 25 24 19 22 21 23 25 27 31 33 36 35 37 44 48 47 45 48 52 54
47 46 49 49 50 51 52 52 53 55 54 53 53 46 36 31 28 35 35 29 29 29 27 27 28 28 26 23 20 18 22 24 26 28 30 37 36 39 43 44 42 42 46 50 51
48 46 46 47 50 51 51 53 54 55 52 52 49 45 31 34 26 27 36 29 27 28 29 27 27 25 24 18 16 17 16 22 26 28 29 36 38 39 41 41 39 41 41 42 47
47 46 46 46 48 49 49 53 52 51 50 48 45 40 36 22 20 19 37 33 28 28 25 26 25 23 19 15 10 13 13 18 32 27 28 26 27 38 40 41 40 38 36 40 45
49 46 46 46 48 48 49 45 43 43 43 33 32 25 19 21 31 26 28 34 29 25 22 26 23 19 15 14 12 17 14 15 24 26 25 25 24 34 41 39 41 42 39 39 41
50 47 46 45 47 48 50 39 36 44 32 31 30 31 30 26 27 23 31 29 27 24 24 24 23 20 18 14 14 18 15 13 16 19 20 19 18 22 38 39 39 40 40 38 39
48 49 46 46 48 46 46 40 45 46 34 26 28 27 25 28 24 22 32 27 25 24 23 23 21 20 20 15 16 16 15 14 16 20 20 18 15 16 27 37 41 40 40 40 39
47 46 46 46 44 37 41 42 44 49 30 18 28 30 30 26 25 21 29 27 25 24 23 22 22 21 17 15 17 15 16 19 19 18 16 19 14 23 21 29 36 40 40 39 40
48 45 47 44 42 44 45 47 48 49 10 15 22 32 28 25 15 22 26 25 23 22 23 21 22 23 18 18 19 19 23 20 20 18 18 15 12 19 15 20 26 33 38 38 38
47 47 47 44 42 44 48 52 49 29 10 13 27 29 30 27 17 19 21 26 24 22 22 22 21 21 20 20 21 20 23 21 21 19 17 16 15 16 17 15 16 24 32 36 37
45 47 47 44 39 41 48 50 28 11 11 11 18 27 28 26 21 18 20 23 21 20 19 20 22 20 23 22 23 23 20 18 16 17 15 17 16 14 24 17 17 19 25 33 36
45 46 44 46 42 45 45 41 13 6 9 19 17 26 26 23 23 20 20 19 21 19 19 18 17 19 23 20 20 21 20 20 26 17 16 21 13 13 17 18 19 19 23 24 34
45 42 39 44 45 43 39 31 20 6 6 11 21 24 25 21 21 19 19 17 18 19 17 17 17 18 20 21 21 21 18 21 22 22 18 16 15 16 14 15 19 21 29 30 28
42 39 38 41 46 42 35 30 24 13 4 9 11 18 20 22 18 18 18 17 16 19 19 18 16 18 21 22 23 22 25 20 20 18 18 13 14 13 16 16 17 17 20 29 31
41 37 36 42 45 39 29 28 26 19 10 4 14 13 15 20 20 16 19 18 17 18 19 19 19 18 24 24 20 23 24 22 22 19 19 18 14 19 18 18 16 18 20 22 26
40 33 39 43 35 35 30 28 24 24 21 15 21 20 16 16 22 18 16 18 20 19 19 21 18 18 23 21 20 22 21 22 21 19 21 20 19 19 18 19 22 20 22 23 27
36 36 40 40 29 30 29 27 23 19 20 19 20 25 27 20 21 23 18 18 24 21 21 23 19 18 16 22 24 23 24 22 22 22 22 26 21 20 21 20 18 20 22 24 26
37 30 38 39 35 28 25 24 22 18 17 21 19 24 22 26 26 23 23 21 26 24 26 27 19 18 17 17 20 19 19 19 19 21 21 19 18 20 19 20 20 20 24 25 25
37 31 34 30 32 29 24 22 19 16 19 20 20 19 21 20 21 25 26 26 30 27 28 26 23 19 18 16 15 16 18 18 18 19 19 20 19 21 21 20 19 26 25 24 25
33 27 35 29 32 27 26 21 17 15 14 21 19 20 25 25 25 33 30 30 27 27 27 26 23 22 17 16 15 13 14 13 13 14 16 15 15 19 19 18 19 21 24 27 30
38 30 28 28 31 27 27 23 19 17 16 19 19 18 23 29 40 38 36 36 35 34 28 26 27 22 19 18 17 16 16 16 15 15 16 17 18 20 20 19 21 23 24 30 35

GFSSW_sfc_30mbdewp_042.txt.gz
Dewpoint
54 55 55 56 57 58 58 58 57 56 56 56 55 54 54 54 53 41 40 38 40 38 42 32 31 28 25 22 18 17 13 12 12 14 21 28 36 44 42 40 54 56 56 57 59
51 51 52 53 55 56 57 58 58 57 56 56 55 55 54 54 47 38 38 40 39 38 29 26 21 23 21 19 17 14 14 14 13 13 17 17 28 42 42 37 50 49 56 58 58
50 50 50 49 51 54 56 57 57 57 57 56 55 55 54 53 40 36 47 41 38 39 32 30 18 17 18 17 15 14 14 16 13 20 19 20 35 41 38 44 51 44 54 55 57
49 50 50 50 49 51 54 55 56 57 57 56 56 55 54 49 25 42 48 42 42 37 31 18 17 15 15 16 16 13 13 16 16 18 21 20 35 42 47 50 54 55 55 55 55
47 48 49 50 50 51 51 52 54 56 57 56 56 55 49 36 33 49 52 46 38 32 30 16 16 15 17 17 16 15 15 17 20 24 24 29 32 35 47 51 54 54 55 55 53
46 46 47 49 50 51 51 51 52 54 55 56 55 54 46 34 31 44 44 39 31 28 24 19 20 23 23 22 17 20 20 18 23 22 27 32 43 43 50 51 52 52 54 55 54
47 47 47 47 49 50 51 51 52 53 54 56 55 51 44 38 30 28 37 34 29 25 24 24 24 25 22 23 19 18 17 19 24 26 30 36 34 40 46 47 45 47 50 52 53
48 47 47 45 46 48 50 50 51 53 54 55 53 48 40 34 33 31 32 34 27 25 26 26 26 26 26 25 22 19 16 17 28 29 34 34 29 37 39 43 42 41 45 51 53
50 48 47 45 45 47 49 49 48 51 54 53 49 46 33 33 32 29 29 31 25 25 27 27 26 24 23 21 17 15 15 16 23 26 33 35 37 39 42 41 42 43 47 50 52
48 49 48 47 45 46 49 47 46 52 52 50 46 38 37 27 26 27 26 31 24 24 26 26 23 21 21 20 16 15 18 19 25 29 25 38 39 42 46 37 38 40 38 45 47
48 48 49 47 46 46 46 42 37 47 48 38 34 28 32 27 25 20 22 32 29 24 23 23 20 17 18 18 15 13 16 20 26 30 28 30 38 44 45 39 38 36 35 40 44
48 49 49 48 46 47 45 41 28 41 36 30 24 26 30 29 25 24 19 31 28 24 23 21 20 22 21 20 15 13 12 15 15 22 19 18 18 36 37 38 40 39 38 39 44
47 48 48 48 47 44 41 39 39 41 35 24 19 18 22 25 25 23 21 26 26 24 22 20 21 24 22 17 15 12 13 14 19 23 21 18 16 18 36 35 38 41 41 39 41
47 48 46 47 42 40 34 38 39 41 29 9 7 23 21 24 21 22 22 24 24 20 21 21 22 22 22 20 14 11 13 17 21 19 14 20 17 19 30 32 36 37 39 38 38
47 48 46 47 42 41 47 49 46 48 3 3 14 27 27 24 20 22 22 26 23 20 21 21 21 20 21 15 12 13 24 24 20 16 18 17 15 11 20 23 33 38 39 39 39
47 48 47 44 45 41 44 47 48 28 8 6 25 26 25 26 24 21 20 22 26 22 22 21 23 21 22 18 17 19 24 24 21 17 18 18 14 18 23 25 24 31 37 39 39
47 47 46 38 41 40 47 47 28 11 1 -2 16 26 24 25 23 23 19 19 22 20 20 20 20 21 20 17 18 19 19 18 17 18 19 20 15 16 26 25 25 23 26 38 39
46 46 45 38 40 45 46 40 12 -1 8 12 12 14 24 25 25 23 19 18 23 21 19 18 18 19 21 20 19 20 19 20 23 26 24 26 18 15 22 20 19 20 20 29 38
46 45 42 42 42 45 40 29 17 8 3 8 11 15 19 25 22 21 18 19 20 22 18 19 19 19 21 19 22 20 19 21 32 34 30 31 20 14 18 16 17 18 23 26 27
45 42 40 42 44 42 35 29 22 14 8 6 6 8 16 23 21 21 19 19 20 22 22 21 19 21 20 21 21 19 23 23 23 24 24 16 14 15 18 15 18 17 20 28 29
43 38 40 42 45 38 28 28 25 23 14 11 12 9 9 16 23 19 20 19 21 19 20 21 21 22 20 19 18 19 19 25 26 22 21 19 19 28 29 29 18 17 20 23 27
41 32 40 42 34 35 30 26 26 24 20 17 16 14 7 14 16 26 21 19 20 20 19 20 21 21 23 21 22 20 20 21 24 22 26 28 24 22 24 27 20 22 22 23 25
37 36 41 41 27 29 32 29 23 23 21 18 16 16 16 18 21 20 21 28 21 21 19 22 20 21 21 22 22 21 19 22 22 24 24 27 26 22 21 20 21 19 21 24 25
37 30 38 39 32 28 29 29 24 24 23 20 15 17 18 21 28 31 27 27 26 22 25 27 21 21 22 20 23 20 19 25 26 25 26 28 26 27 24 26 28 25 21 22 26
37 33 34 30 32 30 29 23 23 21 23 23 19 17 17 19 25 28 31 32 31 29 25 26 24 22 23 20 19 21 20 18 22 26 22 24 20 20 21 28 30 30 26 26 24
32 32 32 28 32 31 30 26 22 20 20 20 21 17 16 17 23 26 36 30 34 31 26 28 24 26 25 23 18 18 18 19 17 17 16 17 18 21 20 28 28 27 21 25 25
40 37 32 29 31 30 29 28 26 22 21 19 19 18 17 16 20 41 42 41 42 41 28 27 27 26 25 25 21 20 19 16 19 18 15 15 18 18 18 21 26 25 21 23 26

GFSSW_sfc_30mbdewp_045.txt.gz
Dewpoint
52 52 52 52 52 54 55 56 57 57 58 57 57 56 56 56 54 47 41 42 44 42 43 35 33 32 31 28 25 23 14 13 14 14 23 35 40 44 44 51 53 55 55 58 60
50 50 50 50 51 52 53 55 56 56 56 57 57 56 56 55 50 43 41 41 40 41 28 27 27 26 25 23 22 19 14 14 16 19 19 37 40 42 44 42 49 54 57 59 58
48 49 49 50 51 51 52 52 53 55 55 57 57 57 56 55 46 38 49 42 40 39 30 30 31 23 18 20 20 18 14 15 16 20 21 20 38 45 41 40 48 48 55 57 56
47 46 47 49 50 51 51 51 51 53 54 56 57 57 55 51 24 41 46 46 42 34 32 30 25 16 15 14 16 16 14 14 17 24 24 34 42 46 48 51 55 54 55 56 55
45 46 47 47 48 50 51 51 51 52 53 54 56 56 52 43 40 45 49 47 39 33 31 28 22 16 16 16 21 16 15 18 19 20 25 41 46 47 49 53 53 55 55 55 53
49 45 46 47 48 48 50 50 51 51 52 54 55 56 50 38 38 47 46 42 35 30 27 30 22 16 23 24 22 21 19 19 19 19 29 36 40 39 49 53 53 54 54 53 52
49 49 46 45 46 47 48 49 50 50 50 53 55 53 48 41 40 41 39 41 34 31 26 26 24 24 26 25 27 25 21 18 17 27 31 37 34 35 43 44 49 52 51 53 52
50 49 49 46 45 46 46 47 48 49 49 51 55 51 44 41 41 40 38 36 36 30 28 26 28 26 25 26 24 22 20 18 17 27 35 33 31 37 39 43 45 48 51 52 52
50 49 49 49 48 47 46 47 48 48 49 51 51 48 41 38 34 36 34 30 35 31 26 26 26 25 25 23 22 22 18 16 19 29 34 33 33 36 40 43 42 44 49 52 51
49 50 48 48 48 47 47 46 46 48 51 52 50 44 43 27 31 31 32 29 33 26 24 26 25 23 22 22 19 20 18 19 22 29 35 35 33 35 38 44 41 44 49 51 50
49 48 49 48 47 48 47 42 40 46 48 45 42 34 34 34 35 28 31 25 31 25 22 26 23 21 20 20 21 20 17 15 25 28 31 34 35 35 35 43 42 45 44 50 51
48 47 48 49 49 48 46 40 40 38 37 41 44 43 41 38 32 29 23 23 31 27 23 24 22 22 21 20 20 22 18 13 21 27 28 28 35 37 38 42 39 38 44 44 49
48 47 48 48 48 46 41 40 40 37 36 33 34 29 27 22 20 23 25 21 30 28 26 23 24 23 22 23 22 19 15 13 15 23 23 22 22 37 40 44 40 36 38 42 46
47 48 47 46 44 42 39 46 48 45 36 25 14 21 21 19 21 23 27 21 29 27 27 24 24 22 21 22 22 17 16 18 21 21 18 21 17 35 40 42 40 38 36 38 44
48 47 47 46 44 42 42 43 44 48 -22 6 10 13 18 17 22 24 25 23 22 25 24 22 22 22 22 22 22 20 21 21 21 22 21 17 21 24 36 37 39 40 40 40 43
48 47 47 45 45 44 44 44 47 33 20 8 25 24 25 19 21 23 23 23 24 24 24 23 23 23 22 23 23 18 23 23 25 24 19 18 21 19 30 27 35 38 40 40 42
48 47 46 42 38 43 45 43 31 24 1 -6 23 26 25 24 23 22 21 19 19 22 23 24 22 23 23 21 22 19 21 21 20 20 18 31 26 24 24 26 35 32 39 40 40
47 47 46 43 42 41 43 37 26 8 11 10 5 15 24 24 25 25 24 22 20 23 23 22 20 22 22 21 19 19 19 19 17 20 26 32 25 22 23 24 24 29 38 39 39
47 46 44 43 43 43 40 29 21 15 8 -3 -1 3 23 25 25 25 23 23 23 20 21 20 20 22 21 21 20 21 20 24 31 34 29 30 29 30 25 25 17 18 23 36 39
45 43 41 43 44 41 35 28 27 25 15 11 8 9 11 21 24 24 23 23 23 21 23 23 21 22 22 21 21 20 24 23 30 23 24 28 29 26 22 22 20 18 18 24 32
44 38 41 43 43 37 28 29 26 27 26 21 10 11 11 13 13 19 22 23 21 21 23 23 22 22 24 23 20 20 20 21 28 28 24 20 21 28 26 26 23 22 25 28 29
42 32 42 42 34 33 29 29 29 23 26 25 23 17 15 17 16 15 26 28 24 23 21 22 23 20 22 25 25 24 20 21 22 23 28 25 23 29 27 26 22 22 22 26 29
37 36 42 40 28 28 29 29 28 28 26 24 24 20 20 18 17 23 29 32 36 31 22 23 20 18 21 21 25 22 21 22 23 25 24 24 25 28 27 26 27 23 23 26 25
37 30 37 39 32 29 28 27 28 29 29 28 23 23 19 19 19 24 28 33 34 37 37 26 21 19 18 20 24 23 24 22 21 22 22 27 27 28 28 28 23 29 31 32 27
37 32 34 30 32 30 29 25 26 27 27 25 22 23 22 19 20 20 29 33 34 36 38 34 22 22 20 23 24 25 25 22 21 21 26 27 27 26 24 26 27 32 32 32 28
32 34 34 30 32 31 30 26 25 25 26 24 22 22 22 20 19 20 30 36 37 40 39 38 26 24 23 23 22 21 23 23 23 24 28 27 26 28 27 28 29 29 30 31 25
40 38 33 31 33 32 29 28 26 27 25 25 24 23 23 24 22 32 39 41 42 39 39 38 35 26 22 24 23 22 24 22 22 24 23 23 24 21 21 27 27 28 28 27 26

GFSSW_sfc_30mbdewp_048.txt.gz
Dewpoint
51 50 50 51 52 52 52 52 53 54 54 54 56 57 57 57 55 48 37 35 45 47 42 36 32 31 29 29 27 22 20 17 14 14 23 37 38 44 48 48 52 55 56 58 60
47 47 48 49 51 52 52 52 51 51 53 54 55 56 57 56 52 41 41 44 48 48 30 22 28 30 28 26 23 20 17 17 16 17 32 38 37 42 40 44 47 53 56 59 59
46 47 46 47 48 50 51 51 51 51 52 53 54 56 56 56 44 32 48 45 49 44 28 28 29 30 22 21 21 19 17 17 16 19 34 39 42 45 41 40 48 47 53 56 57
49 46 47 47 48 48 50 51 51 50 50 51 53 55 56 52 13 41 47 47 46 37 28 30 28 18 15 14 16 14 16 17 15 24 36 40 46 47 44 44 52 51 55 56 55
49 49 47 46 47 48 48 49 49 50 50 50 51 55 53 44 40 43 47 48 40 33 28 26 24 18 15 16 18 22 20 21 20 32 44 44 47 48 50 54 54 54 55 55 53
50 50 49 48 47 47 48 48 48 49 50 49 50 54 50 36 34 39 47 43 34 30 27 28 25 21 17 21 24 25 25 23 19 24 40 41 44 41 50 53 54 53 53 53 53
50 51 50 49 49 48 48 48 48 48 49 49 49 52 46 42 41 39 39 39 36 32 26 26 28 26 25 23 27 25 21 21 21 19 35 38 35 36 51 53 53 53 52 53 52
48 50 50 50 49 49 49 48 48 48 48 49 50 50 41 45 45 43 42 40 39 35 31 29 28 27 25 26 24 22 21 18 20 20 36 33 29 37 50 48 52 50 52 52 51
49 49 50 50 49 48 48 49 48 47 48 50 50 48 39 45 40 40 38 32 33 34 33 29 26 25 24 22 21 22 15 19 20 25 33 32 30 37 43 48 48 48 50 51 51
49 48 49 49 49 48 48 47 45 48 48 52 51 43 42 24 31 32 36 32 29 33 32 26 25 23 23 22 14 15 19 20 19 28 32 32 31 37 41 43 44 44 49 51 51
48 49 48 48 48 49 48 41 34 43 46 45 44 41 32 36 40 32 32 31 29 29 26 24 23 22 22 22 21 21 21 20 20 25 31 32 32 33 41 43 43 44 48 51 50
48 48 49 48 47 49 47 40 38 38 36 36 40 43 43 41 40 38 28 25 24 25 24 22 22 24 25 23 21 20 19 20 19 26 28 29 32 36 38 42 42 43 48 50 50
48 48 48 47 46 46 43 40 39 42 39 34 32 34 37 38 39 37 25 23 27 28 27 21 23 24 24 22 21 21 20 20 15 21 26 28 28 31 37 39 42 43 45 50 50
48 48 48 47 41 43 41 43 42 42 32 24 26 24 28 26 21 26 19 22 23 28 29 25 23 23 24 22 21 20 23 19 21 21 18 21 17 29 33 37 41 41 43 46 50
48 48 47 47 40 38 42 41 45 45 -31 -11 17 22 27 19 16 19 19 25 20 27 28 27 25 24 23 23 23 22 24 21 20 20 21 19 19 23 32 38 39 39 39 42 50
48 48 47 46 45 43 42 43 45 32 7 17 16 16 20 18 20 24 20 25 24 23 27 27 26 24 23 24 24 24 21 23 25 25 21 24 24 21 35 35 39 41 36 37 44
47 47 47 44 37 41 42 43 32 20 8 -5 20 24 19 15 16 21 22 21 19 20 19 22 23 24 25 22 23 22 22 19 20 20 20 29 27 26 26 36 36 39 40 38 38
47 47 46 45 43 42 40 37 24 17 11 14 10 6 24 22 19 20 21 19 21 22 20 20 20 23 25 23 21 21 20 17 16 18 21 31 22 23 29 30 29 39 40 41 40
47 46 44 44 44 43 36 28 26 21 15 9 5 -2 -2 25 24 25 25 23 22 20 21 22 21 24 23 23 22 20 19 22 27 34 29 26 29 28 27 25 25 32 37 40 41
45 44 41 44 43 40 33 27 27 24 22 21 9 10 10 11 19 23 25 25 25 24 22 22 21 23 22 23 22 21 26 23 29 21 20 25 28 26 26 21 21 21 30 39 40
45 38 41 44 43 36 26 25 26 28 28 25 21 15 11 11 15 15 16 23 25 25 24 21 21 21 24 24 20 21 20 24 27 26 21 22 22 26 26 25 25 23 22 27 37
43 33 42 42 33 33 26 27 28 28 28 26 25 24 21 18 17 16 17 23 36 34 23 23 21 18 19 23 25 22 20 21 21 25 27 25 24 27 28 28 26 25 24 29 33
38 36 42 39 27 28 29 27 28 28 27 26 25 22 21 20 18 21 23 24 35 34 35 35 23 20 20 21 22 22 24 22 24 26 27 25 26 30 29 28 26 27 25 26 28
34 30 36 38 33 28 26 25 24 28 28 28 27 27 23 22 23 19 20 25 34 36 39 37 30 21 18 19 22 22 23 23 22 21 21 23 22 27 28 26 27 27 29 29 26
34 32 35 30 30 31 28 27 26 25 27 28 26 23 24 22 22 18 21 28 33 40 39 40 33 30 25 21 22 21 20 23 24 23 20 21 25 27 29 28 28 29 30 32 29
32 33 35 31 32 31 28 27 25 26 26 25 25 25 21 23 23 22 23 22 31 39 33 40 36 35 26 24 21 20 25 23 24 24 23 22 26 29 29 29 28 29 30 30 30
40 38 33 31 31 31 29 27 26 28 27 27 26 26 24 23 24 30 29 30 34 35 35 35 36 35 28 24 24 21 22 24 24 24 25 24 27 28 28 27 28 29 31 29 28

GFSSW_sfc_30mbdewp_051.txt.gz
Dewpoint
47 47 47 49 49 50 50 51 51 50 51 51 53 54 55 56 54 49 34 35 46 49 44 36 31 29 28 28 27 23 19 18 17 14 18 40 40 43 47 49 52 55 55 57 60
47 46 47 47 48 48 49 50 51 50 50 50 51 53 55 55 52 40 40 43 47 48 31 27 28 32 28 28 25 21 18 18 18 16 17 35 37 40 40 43 50 53 56 58 58
48 48 48 47 46 49 49 50 50 49 49 50 51 52 54 55 42 23 47 45 52 46 28 26 30 29 24 23 22 20 18 18 17 18 24 37 40 45 40 40 46 48 54 55 55
48 48 48 48 49 48 49 49 48 48 48 48 49 50 54 53 5 40 51 51 53 42 28 27 28 23 16 14 16 14 16 16 19 23 36 39 46 45 44 44 51 50 55 55 53
49 49 48 49 48 50 49 49 49 48 48 48 48 50 52 43 35 42 47 47 43 31 27 24 25 19 15 16 18 17 21 24 24 27 36 44 46 45 48 53 53 54 56 55 54
49 49 50 49 49 50 50 50 49 49 49 48 48 50 48 31 33 40 48 45 34 31 29 27 21 22 18 17 22 24 25 24 23 33 44 42 45 44 46 54 53 53 54 54 53
49 49 49 49 50 50 48 48 49 49 49 49 48 49 44 32 42 41 39 39 36 31 27 27 26 26 24 23 26 25 21 21 21 25 34 39 36 38 45 53 52 52 53 52 52
47 49 49 49 50 49 48 48 49 49 49 49 49 48 40 43 45 44 43 36 39 37 33 30 28 26 25 26 24 22 21 18 20 25 30 34 23 34 51 52 51 52 51 51 51
49 49 49 49 49 48 48 48 49 49 49 48 49 48 37 45 42 42 41 31 30 34 35 31 28 25 25 23 21 22 14 16 16 23 32 34 30 33 52 51 51 50 50 50 50
49 48 49 49 49 48 48 48 47 48 48 49 50 40 38 28 33 37 41 35 28 31 33 31 28 23 23 21 17 16 18 20 19 21 34 34 32 36 48 48 50 48 48 49 50
49 49 48 48 49 48 46 43 32 40 40 41 41 39 38 38 41 37 34 34 29 30 28 25 22 21 22 22 22 20 20 19 20 21 23 25 32 32 41 44 47 45 47 47 48
49 49 48 48 48 48 46 41 38 39 37 39 38 37 42 42 39 35 35 29 27 24 28 25 21 22 24 24 22 21 20 19 20 21 27 27 28 34 39 40 43 43 45 47 49
48 48 48 48 48 44 43 41 42 42 39 38 36 30 24 39 37 33 37 25 24 24 26 26 23 24 24 23 22 22 21 19 19 21 29 28 24 27 37 41 43 43 45 48 48
48 48 48 48 41 42 40 42 39 43 32 21 31 24 27 33 32 33 33 24 24 22 28 26 26 23 24 22 23 21 22 22 22 20 18 24 19 20 30 37 41 42 44 48 50
48 48 48 48 41 39 37 40 41 43 -12 -7 21 25 29 23 16 23 25 23 20 27 28 28 26 24 23 22 24 22 24 23 23 22 21 20 18 19 32 34 37 41 42 45 50
48 48 47 47 46 44 43 41 44 32 11 6 17 23 25 23 18 21 21 21 22 22 27 27 28 26 24 25 25 24 23 23 25 24 20 20 21 21 23 25 32 38 41 43 48
48 48 47 44 38 41 41 40 33 23 15 -0 12 20 20 19 17 20 15 17 16 21 20 21 24 26 25 23 24 24 22 19 17 19 19 25 28 26 25 28 30 34 40 41 45
47 47 47 46 44 43 40 34 25 20 15 13 9 5 21 16 16 19 20 14 20 22 20 18 16 20 24 24 22 22 22 19 15 16 18 30 24 23 28 29 32 37 41 39 41
46 46 45 45 43 42 34 26 26 26 21 20 11 6 7 19 23 20 21 20 16 20 19 19 18 23 23 24 24 22 20 22 23 32 27 24 26 28 27 27 29 29 39 41 37
44 44 42 44 44 40 31 24 27 28 27 26 13 13 12 11 17 18 25 26 22 21 21 22 21 24 23 23 23 22 25 22 27 18 19 23 26 21 22 25 23 22 31 40 41
43 39 42 44 43 36 26 23 25 27 27 26 26 21 21 17 16 14 15 28 28 29 23 20 21 20 22 23 21 21 21 25 25 24 17 18 19 29 28 28 24 23 23 31 41
41 33 43 43 33 32 26 25 24 25 28 27 26 25 22 19 18 16 16 22 34 34 31 24 22 19 19 21 23 22 21 23 21 24 27 24 21 27 28 28 28 25 26 25 32
36 34 43 40 27 28 29 27 26 27 26 27 26 27 23 19 13 19 22 27 27 33 33 34 28 20 20 21 22 20 21 23 27 27 23 21 22 29 29 29 28 26 27 25 29
33 29 35 38 34 28 29 28 26 27 28 28 28 27 25 22 24 20 21 21 22 37 39 35 34 30 25 23 23 22 21 22 22 21 21 24 23 26 27 27 27 28 28 26 26
34 31 35 29 31 30 28 26 26 24 26 27 25 26 25 22 22 21 21 25 29 39 40 36 32 35 36 34 31 23 22 23 22 23 21 22 23 25 25 26 28 28 28 29 29
31 32 37 33 33 31 29 27 24 25 25 26 26 27 26 23 22 19 20 21 22 32 35 39 32 35 32 33 29 25 23 21 21 25 24 23 23 26 27 28 29 29 29 29 29
39 37 36 34 32 30 28 27 27 27 28 26 27 26 25 25 26 25 26 27 28 26 30 35 32 30 26 31 33 25 24 23 22 25 25 23 25 26 27 29 29 29 29 29 30

GFSSW_sfc_30mbdewp_054.txt.gz
Dewpoint
49 48 47 47 47 48 49 49 50 49 48 49 49 50 51 53 53 51 32 30 44 48 43 35 30 28 27 26 26 23 19 18 18 15 15 38 37 43 46 48 52 54 54 57 59
50 49 49 49 50 49 49 49 49 49 48 49 49 50 51 52 50 44 40 44 51 49 33 26 28 31 28 28 26 22 19 18 19 18 17 27 37 39 40 41 47 51 55 58 59
47 47 48 48 49 51 50 50 49 49 49 49 49 50 51 52 44 19 50 49 52 45 29 25 30 28 24 24 22 21 18 19 18 19 18 21 38 41 39 39 43 46 51 56 56
47 47 47 48 48 49 50 51 51 49 49 49 48 49 50 51 -1 40 54 51 55 44 28 26 28 25 19 18 19 18 18 18 17 20 29 34 43 41 43 45 51 49 53 55 55
48 48 47 46 47 48 50 50 49 48 48 49 49 49 48 41 35 40 50 53 47 33 28 26 24 21 16 16 16 15 17 21 23 25 32 42 40 43 45 51 53 53 55 54 54
48 49 49 48 48 48 49 49 48 47 48 48 49 48 47 24 31 42 41 46 35 30 29 26 22 23 18 16 19 23 24 25 23 26 34 36 43 47 43 53 52 53 53 54 53
48 48 49 48 49 49 49 48 47 47 48 48 49 47 43 30 38 39 41 38 36 30 27 28 25 26 24 23 25 25 22 21 20 22 33 42 37 40 44 53 51 52 53 51 52
48 49 49 50 49 49 49 48 47 47 48 49 49 46 38 42 45 44 43 36 36 36 32 31 28 24 25 25 24 22 21 17 19 30 31 36 21 26 45 51 50 51 51 50 50
49 49 49 49 49 49 49 48 47 46 49 49 46 44 30 42 42 42 42 28 28 35 35 32 30 26 25 23 21 21 15 15 16 23 32 34 26 33 50 51 49 50 50 49 49
49 49 49 49 49 49 49 47 44 48 47 48 47 37 31 10 34 37 43 37 27 31 33 32 30 24 23 22 13 17 17 19 18 22 32 32 30 32 44 50 49 50 49 49 49
49 49 49 49 49 49 47 41 36 35 39 38 39 34 32 41 41 38 37 36 31 31 26 30 27 24 22 22 21 17 19 18 18 20 20 19 21 23 35 47 48 49 48 47 48
49 49 49 49 49 49 44 40 38 39 35 37 38 38 38 42 38 31 37 30 27 24 29 24 23 25 24 23 22 21 20 18 18 19 22 23 25 29 34 39 44 46 47 46 48
49 49 49 49 48 43 42 41 40 39 37 36 36 34 30 33 31 25 34 28 26 25 26 24 24 23 23 23 22 22 20 19 16 20 23 26 22 25 32 39 42 43 44 45 46
49 49 49 48 42 41 37 41 40 41 31 24 34 32 26 34 30 29 30 26 26 22 26 27 27 24 23 22 23 20 23 21 21 20 19 26 19 21 22 29 37 41 43 44 46
48 48 48 48 43 40 38 42 40 43 1 2 24 26 32 19 17 24 31 25 23 25 26 25 27 25 23 22 23 20 22 22 22 22 21 21 19 19 29 27 28 34 41 43 46
48 47 48 46 45 44 43 40 43 32 19 12 18 24 27 26 21 24 27 24 24 25 29 24 29 27 25 25 24 25 23 24 25 23 20 20 19 18 19 22 24 30 38 41 45
47 47 46 45 39 42 41 37 30 23 22 6 11 17 19 22 22 19 20 18 14 18 19 22 25 26 24 23 25 24 22 18 18 21 20 22 21 21 24 25 26 27 33 41 43
46 46 46 47 44 43 39 32 22 24 23 22 18 15 14 19 18 16 16 14 14 21 19 18 16 22 25 24 23 23 22 19 16 17 17 29 24 22 27 29 30 31 35 40 43
45 44 44 45 44 41 33 23 21 24 24 25 18 12 14 14 21 21 15 12 13 23 17 19 18 22 22 25 25 23 21 23 23 30 25 23 25 26 25 27 26 27 34 39 41
42 40 40 45 44 40 31 23 25 31 27 26 17 20 16 17 16 18 24 30 21 18 23 22 18 23 23 24 24 22 25 22 24 19 19 22 25 18 20 20 26 24 29 37 39
40 35 40 45 44 37 26 27 23 22 23 25 26 24 22 20 18 16 18 28 31 32 25 22 21 20 21 22 21 22 21 25 23 24 18 17 18 27 23 26 27 26 24 31 40
38 30 43 44 33 32 28 29 26 23 25 27 28 25 23 20 16 14 21 25 23 36 29 31 22 17 16 20 24 22 21 24 20 21 26 22 19 26 27 28 28 28 27 25 35
35 35 44 41 28 29 31 29 26 25 25 27 27 27 26 21 13 18 21 27 25 35 34 31 31 22 21 22 23 20 21 21 26 26 22 21 21 29 28 28 29 29 27 28 26
34 28 36 38 36 30 30 28 26 27 25 28 28 28 25 23 23 22 21 22 26 31 40 37 33 31 26 30 34 31 29 23 21 19 21 22 23 24 26 26 25 27 28 28 28
35 30 34 28 30 31 30 27 26 23 26 27 25 26 25 23 22 20 20 24 21 27 37 37 27 34 35 33 34 31 30 27 23 23 20 20 22 24 25 26 26 26 28 29 29
31 31 36 33 32 32 31 28 26 27 24 25 25 27 26 24 23 19 20 20 19 27 30 36 31 34 29 32 28 26 30 26 25 23 24 24 23 25 26 28 27 27 28 28 29
38 37 37 32 32 30 29 29 27 26 27 25 26 26 25 25 27 27 26 25 25 27 25 33 31 28 23 29 25 21 25 22 27 27 25 23 24 26 25 27 28 28 29 29 29

GFSSW_sfc_30mbdewp_057.txt.gz
Dewpoint
50 50 49 49 50 51 51 50 50 49 49 49 49 49 50 51 51 49 33 26 45 48 45 39 30 29 26 25 26 24 21 18 18 17 16 32 34 44 46 45 51 53 54 56 58
47 47 47 48 49 50 51 51 51 51 50 50 49 50 50 51 49 43 44 46 49 52 32 28 26 26 23 27 25 23 21 19 20 19 18 22 33 36 39 40 44 50 55 58 58
47 47 47 47 47 48 50 51 51 49 49 49 49 50 50 50 41 21 54 55 51 52 32 27 32 29 25 27 24 23 19 21 20 20 19 19 30 38 38 36 40 44 50 56 56
47 47 47 48 47 48 49 50 49 47 46 47 48 49 49 50 -11 35 52 53 54 50 28 30 30 27 23 22 23 20 20 20 18 19 25 25 38 40 40 38 49 50 52 55 54
47 47 47 47 47 48 49 49 49 48 47 46 48 49 47 37 21 39 44 54 53 39 28 25 27 24 21 17 17 19 17 18 18 22 26 39 38 40 44 47 52 53 54 54 53
48 48 48 47 47 47 48 49 49 49 48 46 48 48 45 22 26 41 39 42 39 32 29 27 23 23 20 17 17 20 18 22 25 23 29 33 39 45 43 50 52 53 53 54 53
48 49 49 48 48 49 49 48 49 48 48 46 47 46 40 29 33 37 39 36 38 32 29 29 26 22 22 21 23 25 23 22 21 22 29 40 34 37 45 51 50 51 52 52 52
48 49 50 50 50 50 49 49 48 48 48 49 49 45 32 38 44 44 42 37 36 36 34 30 28 24 23 26 24 23 22 18 19 29 35 36 22 27 44 49 48 50 52 50 51
49 49 50 50 50 50 50 49 48 46 49 49 47 41 23 37 42 41 41 33 31 35 35 33 30 26 26 23 22 22 15 17 16 25 34 35 26 31 49 48 47 49 50 50 49
48 49 49 49 50 50 49 48 45 47 47 47 44 30 28 11 33 38 43 38 26 33 32 32 29 25 24 20 11 17 18 19 16 27 32 30 26 28 40 47 47 48 49 49 48
48 48 49 49 49 49 48 41 37 35 37 38 37 34 31 41 42 40 40 38 32 30 30 31 28 23 21 22 20 19 17 17 20 21 19 20 21 23 26 44 46 48 49 50 49
47 48 49 49 49 48 43 39 39 38 34 36 36 35 37 39 37 35 37 32 28 20 29 27 27 28 25 24 22 20 19 19 21 21 19 19 21 25 30 34 41 45 48 49 48
47 47 49 48 49 42 41 40 40 40 35 35 35 34 34 34 31 28 33 32 26 25 26 25 25 27 24 23 22 22 21 21 18 20 22 24 23 22 27 35 39 44 46 47 47
47 48 48 48 41 42 38 42 42 40 31 26 33 34 31 32 27 28 24 28 27 23 26 25 25 24 23 22 23 21 23 22 20 18 14 24 18 22 22 24 30 36 43 44 46
46 47 48 47 44 39 40 44 41 43 3 11 26 28 31 22 19 25 27 23 24 24 26 23 26 24 22 21 24 19 23 22 22 20 22 21 20 21 24 23 23 27 35 43 44
46 46 47 45 45 43 43 41 42 30 14 17 20 26 27 25 23 28 27 27 24 26 29 21 29 26 22 25 24 25 22 25 26 24 20 21 20 19 20 21 22 25 31 40 44
45 46 45 46 41 42 42 36 28 20 22 19 19 18 16 15 24 22 25 23 18 20 25 25 25 26 26 24 25 24 23 18 19 21 19 24 21 20 22 24 25 26 28 36 43
45 45 44 45 44 43 39 30 20 19 24 25 23 21 13 20 20 19 23 21 20 20 18 20 18 25 27 25 24 24 21 19 16 18 18 28 21 20 27 29 30 31 32 35 42
44 42 42 44 46 43 34 24 21 20 25 25 23 17 15 19 19 21 18 18 16 18 16 17 17 23 25 26 25 24 22 24 23 29 23 23 25 25 24 24 25 28 28 32 39
41 40 38 44 45 41 31 23 22 28 25 26 21 23 19 20 17 19 24 21 27 19 24 22 18 23 23 25 26 24 26 22 24 17 17 21 23 19 20 20 23 28 25 31 38
39 34 36 45 44 37 26 27 25 24 23 24 25 24 23 21 17 13 25 22 24 31 23 24 21 21 24 21 21 23 22 25 24 23 18 17 20 27 24 24 25 29 28 27 30
36 28 41 45 33 32 29 30 28 24 24 25 28 26 24 21 16 12 18 26 27 32 31 31 21 17 19 21 24 23 23 24 21 21 26 23 19 24 26 29 31 29 29 29 28
33 31 42 42 26 26 32 31 27 25 25 24 28 28 27 22 15 18 22 24 25 23 38 36 30 22 21 21 26 24 23 23 27 25 22 22 21 26 28 28 28 29 31 30 29
34 27 32 37 34 28 29 29 26 27 25 27 28 28 26 23 24 21 21 21 25 23 38 36 33 28 23 27 33 31 31 31 25 21 20 22 22 23 24 27 29 29 29 30 30
34 29 32 27 29 30 31 28 26 24 26 26 24 26 25 23 23 20 21 23 21 29 34 36 28 30 33 33 34 30 28 29 27 25 22 22 23 23 25 26 26 29 29 29 29
31 30 34 30 32 31 31 29 25 26 24 24 24 26 26 24 22 19 21 21 19 26 26 27 32 32 27 30 31 26 27 23 26 25 25 24 24 27 30 29 28 28 29 28 29
35 37 35 29 28 30 28 28 28 28 27 24 25 26 25 26 27 27 28 27 26 25 24 26 32 28 19 29 24 17 25 25 27 27 27 22 20 22 33 34 32 30 30 29 28

GFSSW_sfc_30mbdewp_060.txt.gz
Dewpoint
47 48 48 48 49 49 50 50 50 49 50 50 50 50 50 51 49 35 31 31 39 48 45 41 37 28 26 22 26 24 14 9 9 15 15 21 25 31 38 34 44 47 45 51 55
48 48 48 48 48 49 49 49 50 49 48 48 49 50 51 51 41 25 28 42 48 52 37 35 31 26 19 18 21 19 12 10 12 16 16 19 21 22 30 26 37 43 50 55 55
47 47 47 47 48 49 50 50 50 48 48 48 48 49 50 49 22 11 48 55 55 53 34 30 27 22 13 16 19 17 13 12 15 18 19 20 22 27 28 26 26 34 42 52 54
47 47 47 47 47 47 49 49 49 47 47 47 47 47 50 43 -12 27 47 55 54 48 32 28 26 18 15 16 16 16 16 15 14 17 20 23 24 29 30 29 42 42 46 52 52
48 48 48 48 47 48 49 49 49 48 47 47 47 47 45 23 9 11 41 47 48 42 29 27 26 21 16 14 17 19 13 18 18 19 20 24 27 27 29 36 44 47 49 52 52
49 49 49 48 48 48 50 50 50 49 48 48 47 47 42 26 14 26 35 34 36 38 32 28 24 22 19 16 15 14 17 15 16 20 22 25 21 37 27 36 46 48 48 50 52
49 49 50 49 49 49 49 50 50 49 49 48 47 45 39 31 21 22 28 22 29 34 31 33 29 23 18 18 18 16 17 18 19 20 19 25 22 33 30 43 45 47 48 50 52
48 49 50 50 50 50 50 49 49 49 49 48 49 44 31 29 32 35 32 29 26 31 34 28 31 26 23 21 22 17 16 13 14 17 23 29 15 19 32 41 41 44 45 48 50
48 49 49 49 50 50 49 49 49 47 49 49 46 41 26 32 33 32 38 32 24 27 32 32 30 27 22 19 16 18 11 12 13 19 25 30 18 26 37 37 35 40 45 47 47
47 47 48 49 49 49 49 48 44 47 45 45 42 36 29 15 24 38 42 39 27 24 32 32 29 24 22 17 13 13 15 12 12 16 22 23 23 22 30 37 38 38 43 46 46
46 47 47 49 49 49 45 38 31 32 33 28 27 31 30 35 38 27 41 40 30 24 25 30 26 20 18 19 15 12 13 11 8 16 20 18 18 18 20 28 35 39 42 44 46
45 46 47 48 49 48 41 37 37 37 34 34 33 32 30 32 33 28 38 30 32 20 25 30 26 23 23 20 18 14 13 11 11 18 17 12 12 18 20 24 28 35 40 43 46
45 46 46 48 48 44 40 39 41 39 33 31 33 33 32 31 29 29 34 34 29 28 14 24 23 26 26 20 19 16 13 13 13 16 17 16 15 17 19 26 29 35 37 41 44
45 46 47 47 43 40 37 40 41 41 30 21 26 31 33 29 24 26 26 31 24 22 24 18 18 24 25 21 18 14 16 16 17 17 7 18 10 15 19 20 20 22 36 39 43
45 45 47 47 41 37 39 41 40 41 7 17 24 31 29 25 17 23 23 22 19 16 24 20 20 17 21 21 19 17 18 20 19 18 14 10 12 12 18 19 19 19 23 38 41
44 45 46 41 43 39 41 42 40 29 7 15 19 20 25 24 21 25 26 21 18 16 27 23 26 22 18 19 22 21 21 21 20 16 14 13 14 12 13 17 16 17 19 30 38
43 44 43 40 37 42 44 37 26 9 12 18 20 20 18 17 20 22 24 20 15 12 17 19 22 25 25 16 21 21 18 15 14 16 13 17 17 17 19 21 20 20 21 31 39
43 44 41 38 41 45 42 30 16 10 15 23 23 19 13 18 20 21 23 20 18 10 10 12 16 22 26 22 20 21 19 13 13 14 15 22 17 18 21 24 26 27 27 30 36
42 38 38 38 42 44 36 22 10 14 21 24 20 15 14 17 18 20 21 21 18 17 11 14 14 22 25 25 22 22 20 20 17 25 21 20 21 23 21 20 22 21 24 26 29
39 37 34 38 43 42 32 20 18 23 26 24 19 20 15 18 15 20 21 24 24 23 20 19 15 18 24 26 25 25 24 21 20 15 16 16 19 17 19 19 20 24 26 27 33
38 32 31 40 43 36 25 21 21 21 25 23 24 22 21 19 16 14 25 24 23 22 23 20 23 23 23 23 23 24 23 22 21 18 15 14 17 22 21 24 26 26 27 29 29
34 27 40 43 32 32 27 23 24 23 20 22 25 25 23 22 19 14 17 23 24 27 23 19 23 17 19 23 23 22 21 22 19 19 21 20 17 23 26 25 28 28 27 30 31
30 28 42 40 26 26 27 23 27 24 21 20 20 27 25 22 19 15 18 21 22 24 34 34 18 12 10 15 22 21 21 22 22 22 22 21 19 23 25 24 24 24 28 29 31
31 25 31 36 34 28 23 25 24 27 24 23 22 27 24 23 23 20 18 18 21 27 34 37 32 17 13 14 24 25 24 27 23 20 20 19 20 21 22 22 25 26 27 28 29
33 28 25 26 27 27 28 29 21 22 26 24 22 22 22 22 21 20 19 18 19 25 30 34 30 29 29 29 29 28 27 26 26 25 22 20 20 21 23 27 30 30 28 28 28
30 27 32 27 26 26 26 23 25 22 23 22 22 21 23 23 22 19 20 20 20 22 23 28 24 28 23 25 27 23 23 23 23 26 25 24 23 26 23 25 31 33 32 31 30
33 34 33 23 23 26 24 26 22 23 24 23 23 24 25 25 26 26 26 27 25 25 24 25 28 23 16 23 23 17 19 20 25 27 26 25 24 22 18 26 32 34 33 33 35

GFSSW_sfc_30mbdewp_063.txt.gz
Dewpoint
48 48 48 48 48 49 49 49 49 49 49 49 48 49 49 50 49 38 22 26 32 46 43 36 39 35 28 22 20 20 17 13 10 10 11 17 17 18 25 24 25 35 37 45 53
47 47 47 47 48 48 48 49 49 48 48 48 49 49 50 50 42 29 38 45 49 47 35 31 33 31 23 20 18 18 14 11 11 10 11 15 16 17 21 20 23 31 38 47 50
47 47 47 47 47 48 49 49 49 48 48 48 49 49 49 48 33 21 43 54 56 53 33 27 31 27 22 17 15 16 14 11 12 12 12 14 15 18 20 20 22 29 29 38 49
47 47 47 48 47 48 49 50 50 49 49 48 48 48 49 43 19 20 36 53 55 44 36 32 27 25 23 17 13 13 15 13 12 12 12 15 16 18 21 23 25 35 39 40 48
47 48 48 48 48 49 50 50 50 50 49 49 49 48 41 30 30 26 30 37 46 40 35 28 25 24 21 15 11 14 14 13 12 12 13 16 17 20 20 23 28 38 43 43 48
49 49 49 49 48 48 49 50 50 50 50 49 49 48 38 25 30 27 23 16 16 35 35 28 25 24 20 16 13 13 14 15 11 13 15 15 17 18 20 25 29 40 42 45 47
48 48 49 49 48 48 49 49 50 49 49 48 49 45 34 22 24 23 24 19 14 8 25 32 28 24 22 20 17 15 13 13 13 13 12 16 16 17 18 24 32 39 41 44 49
47 48 49 49 49 49 49 49 49 49 49 49 50 43 31 23 26 29 28 26 23 17 14 30 31 30 25 20 17 15 14 12 13 13 15 16 14 16 17 30 31 35 40 43 48
47 47 48 49 49 49 49 49 48 49 48 49 46 40 27 29 26 25 24 24 28 24 20 20 28 27 28 22 18 18 12 12 13 14 14 16 16 16 27 28 29 31 38 41 44
46 46 47 48 49 49 49 47 44 46 46 42 39 37 32 20 18 31 37 33 32 35 23 17 26 25 23 22 15 14 14 14 12 14 15 15 21 18 25 29 29 30 32 39 43
44 45 46 47 48 48 46 36 29 34 31 24 23 30 23 29 31 30 35 38 32 29 29 14 20 23 21 21 21 17 14 13 15 13 14 15 14 18 18 21 25 30 32 36 41
43 44 46 46 47 47 44 34 36 38 34 31 30 29 29 28 25 28 35 30 32 32 30 23 17 18 21 21 20 19 15 14 14 12 16 14 10 13 15 15 20 24 29 34 39
43 44 46 47 47 45 36 37 38 39 32 26 27 28 29 30 24 25 28 30 31 34 33 26 20 24 20 21 19 19 18 15 14 14 17 16 10 9 12 16 19 23 25 29 36
42 44 46 47 42 38 34 37 39 40 30 18 21 27 30 28 23 23 27 31 32 34 35 28 24 25 24 23 23 18 19 17 15 14 13 16 9 11 11 14 18 21 23 27 31
42 44 46 46 37 35 35 39 40 40 14 11 23 29 28 24 21 23 20 29 27 28 26 29 20 16 21 23 24 21 19 17 16 15 16 17 11 10 13 15 17 18 19 24 31
41 44 44 37 40 39 37 41 40 31 12 11 16 18 19 18 23 22 22 21 26 30 27 22 23 24 20 17 21 20 19 19 19 18 17 19 15 12 13 15 18 15 17 19 30
42 43 41 37 34 40 40 38 27 13 7 12 15 16 15 15 19 20 24 22 15 19 23 25 22 24 24 18 20 18 18 17 17 16 16 18 16 16 16 18 19 19 17 22 27
42 43 36 35 36 40 40 30 18 5 6 15 17 12 8 15 20 22 22 21 20 19 21 19 18 23 24 23 17 17 18 17 15 16 16 18 16 17 20 20 20 20 21 22 31
41 33 33 35 37 37 36 22 10 8 11 17 10 0 4 14 18 20 20 22 21 20 16 14 9 17 19 25 23 18 17 19 17 25 22 18 19 21 22 19 20 21 21 21 23
32 33 31 33 38 38 33 22 14 16 22 17 8 8 10 14 16 17 20 26 24 25 21 17 14 15 21 24 26 22 21 17 18 17 18 18 22 18 18 19 20 21 25 26 26
31 31 29 35 38 36 27 21 17 17 21 19 13 15 14 16 16 17 29 28 27 24 29 20 20 17 19 21 22 23 21 24 19 18 17 17 18 22 21 24 24 25 25 27 29
29 28 33 36 31 30 26 23 21 18 19 19 19 19 20 20 18 16 17 23 27 25 33 23 19 15 27 20 22 24 23 23 22 26 21 21 20 24 27 25 24 25 25 28 29
28 27 37 38 26 26 26 23 21 19 17 17 15 17 17 18 17 17 16 20 23 25 30 32 17 17 19 27 21 20 24 26 25 26 28 26 22 24 24 24 24 25 26 28 29
31 28 25 35 31 27 22 23 19 20 19 18 17 16 15 18 19 18 19 19 20 21 28 31 32 18 11 16 16 18 21 23 21 23 24 26 26 25 24 22 24 28 29 28 29
29 26 26 24 25 26 24 26 18 17 20 19 18 18 17 16 16 18 19 19 20 22 21 27 33 34 24 25 25 17 19 19 22 24 23 25 22 22 22 24 27 29 31 30 30
28 25 25 24 25 21 21 25 21 22 18 19 21 18 15 14 16 19 20 18 19 20 23 25 27 35 28 26 26 24 25 22 23 22 23 22 22 24 26 22 23 30 32 33 35
31 29 31 25 22 24 24 21 18 19 21 22 22 18 18 20 25 29 28 27 29 26 24 24 21 30 28 24 22 22 23 23 23 22 22 21 24 28 22 22 26 30 36 37 37

GFSSW_sfc_30mbdewp_069.txt.gz
Dewpoint
46 47 47 47 48 48 49 49 51 49 49 49 49 50 50 51 51 43 34 36 41 42 35 31 27 32 36 36 34 31 24 19 18 18 18 17 20 21 20 21 25 26 27 48 55
46 47 47 46 47 49 49 49 51 49 49 49 49 50 51 51 47 39 39 41 38 50 35 27 20 22 33 33 33 28 22 20 20 19 17 15 16 20 18 19 22 23 50 55 54
45 46 47 48 48 49 49 50 50 48 48 49 49 50 50 50 38 29 37 40 39 51 43 40 32 18 31 32 30 26 22 21 19 19 19 17 13 14 16 18 17 21 48 51 50
47 48 48 47 47 47 49 49 49 48 48 48 48 49 49 47 3 25 37 41 47 49 48 41 32 17 21 28 30 26 23 22 20 19 17 15 13 12 14 19 20 25 43 48 48
45 47 47 47 46 47 48 49 48 47 47 48 48 48 46 34 29 27 32 41 46 44 38 36 27 19 20 23 27 26 23 20 18 17 16 15 14 12 13 16 20 25 35 39 47
47 47 47 47 47 47 47 47 47 47 47 48 48 48 44 28 28 24 25 22 26 21 33 29 32 23 25 25 22 24 23 22 20 17 13 12 13 12 13 15 16 19 38 39 43
45 47 47 46 46 46 46 46 46 47 47 47 49 46 41 31 30 29 31 26 21 14 13 14 14 23 30 29 25 22 20 20 20 17 15 13 14 14 15 16 15 19 38 41 43
44 45 46 46 46 47 47 46 46 46 46 48 50 46 38 37 36 33 31 26 24 21 19 22 16 17 26 30 29 27 23 18 19 17 17 14 13 14 15 16 16 17 35 40 45
45 45 45 45 46 46 46 46 46 45 47 49 48 45 39 38 36 34 31 24 24 25 26 24 18 19 25 26 26 26 21 19 18 17 15 15 12 14 14 13 17 18 33 40 46
42 43 44 45 45 45 46 45 43 46 46 45 44 43 42 32 25 24 27 33 26 23 27 24 22 19 24 25 23 24 22 19 16 17 17 14 13 14 14 16 26 27 29 37 46
41 41 43 44 44 44 44 41 32 35 35 36 37 39 36 32 24 21 22 34 33 24 27 28 23 20 19 22 26 25 24 20 19 23 24 22 18 15 16 18 24 28 28 29 44
40 41 42 43 44 44 44 40 36 38 34 35 33 31 30 28 25 25 21 22 32 29 29 31 26 27 27 28 24 25 23 20 21 24 24 20 16 15 16 17 20 27 27 28 40
41 42 42 44 44 43 41 38 40 38 33 31 29 29 29 29 26 25 22 26 29 29 30 29 31 31 31 30 28 26 22 20 21 23 23 20 16 14 16 17 17 22 28 30 40
42 42 43 45 39 38 35 39 42 40 30 26 25 24 28 27 23 26 23 23 26 28 35 36 36 33 28 27 27 28 28 23 21 20 20 24 16 16 16 17 18 16 22 30 37
42 42 42 43 40 36 35 41 40 40 8 26 23 28 29 25 22 20 21 21 23 34 36 31 36 36 34 29 29 32 32 28 29 29 28 24 17 17 18 18 18 17 15 25 32
42 41 42 37 39 37 37 40 40 30 12 14 23 22 24 25 24 22 19 21 24 32 37 34 38 37 33 32 34 33 33 33 31 30 25 24 20 16 17 18 21 19 17 24 25
42 41 39 38 34 36 36 39 27 22 19 11 15 17 20 15 23 22 17 17 23 24 26 29 30 32 37 34 33 31 34 28 24 22 22 22 20 19 20 22 22 20 19 22 27
42 42 41 38 36 37 38 34 22 19 17 15 14 12 10 9 7 23 17 15 17 20 17 20 24 26 31 30 26 29 33 29 23 26 24 24 19 19 22 22 23 19 21 26 33
41 38 38 37 38 38 35 24 20 13 14 17 14 10 7 4 8 19 22 22 18 18 14 17 23 27 31 28 28 33 28 30 30 28 28 28 25 21 22 22 21 19 20 26 32
38 36 35 36 38 36 31 23 21 21 21 19 14 9 3 11 13 13 22 28 27 24 21 20 18 21 28 30 30 35 33 30 31 25 24 25 26 20 26 20 20 22 23 25 32
36 31 31 35 36 33 24 24 21 22 21 18 17 17 17 15 12 13 25 32 28 26 28 28 26 21 23 26 26 30 34 35 35 30 25 27 28 32 26 29 29 30 31 31 32
35 27 32 40 29 32 26 22 23 22 24 23 18 16 17 17 17 17 16 30 26 27 28 28 29 25 23 28 31 31 29 34 31 30 28 24 25 32 26 29 30 30 30 32 36
31 31 31 37 26 25 27 23 24 23 24 21 18 17 17 16 17 16 16 27 26 28 26 27 27 26 21 24 30 29 30 31 35 34 32 30 26 34 33 31 29 29 32 37 37
32 25 28 31 30 29 27 24 24 24 23 21 18 19 19 17 16 15 16 26 21 28 30 30 28 28 26 29 31 29 32 32 34 32 32 34 34 36 37 38 31 32 36 38 39
33 26 26 23 25 27 28 27 29 25 23 19 17 17 16 17 17 16 17 18 19 30 31 32 28 31 32 28 30 31 32 30 33 35 34 34 34 35 39 39 37 38 38 39 40
29 27 26 26 26 25 24 26 23 22 31 25 20 16 16 16 16 16 25 26 29 30 31 32 29 30 27 32 32 31 31 26 27 34 38 36 35 40 41 41 40 37 38 39 40
33 32 31 25 25 25 28 28 23 22 20 23 29 30 28 26 28 28 29 28 29 28 29 31 28 29 25 31 30 26 28 27 30 37 35 34 36 39 39 40 37 37 38 39 40

GFSSW_sfc_30mbdewp_072.txt.gz
Dewpoint
46 46 46 46 47 48 49 49 49 48 48 48 49 49 50 51 50 45 30 31 40 42 46 34 29 33 38 36 35 32 27 23 23 22 21 21 19 18 21 28 29 28 38 44 54
45 46 46 47 48 48 48 48 49 48 47 48 48 48 50 50 47 38 37 39 44 44 34 27 21 20 31 33 34 32 27 27 26 23 21 20 19 18 17 21 25 32 53 54 55
47 47 48 47 47 47 47 49 48 47 46 47 48 48 49 49 39 24 30 42 45 51 33 34 30 22 21 31 32 30 28 27 25 23 22 20 20 20 16 16 21 24 51 54 55
45 45 46 46 46 46 47 48 47 45 45 45 46 48 49 47 -21 24 37 44 41 50 47 44 40 27 17 22 32 29 29 28 27 24 22 21 20 18 15 15 21 28 52 53 53
44 46 47 46 46 46 46 47 47 45 45 45 46 48 46 37 31 28 31 30 48 46 43 42 35 23 17 20 23 28 29 29 28 25 23 21 19 18 16 16 18 39 51 51 50
44 45 46 46 45 44 45 46 46 45 44 45 46 47 43 28 27 28 28 29 28 35 30 34 33 27 20 22 22 25 27 28 27 24 22 19 17 15 15 15 15 35 47 48 48
44 45 46 45 43 43 44 45 45 46 45 45 46 46 41 32 33 30 33 32 28 23 18 16 18 15 20 27 30 28 24 22 22 22 21 20 17 15 15 15 15 16 38 43 48
45 45 45 45 45 45 45 44 44 45 45 46 47 46 38 39 39 37 35 32 30 25 21 19 22 18 18 27 29 27 27 24 23 21 21 18 16 17 16 16 15 16 26 39 44
44 43 44 45 45 45 44 44 43 45 47 47 48 45 35 43 39 34 37 30 26 25 25 24 22 18 19 24 26 27 24 23 22 21 20 17 15 16 16 16 15 15 19 39 42
43 41 42 44 44 44 44 43 43 46 47 48 45 42 41 31 31 26 26 27 29 23 27 24 21 18 22 25 24 24 24 23 20 20 20 21 22 22 21 17 16 15 18 36 43
42 41 41 43 43 43 42 42 35 33 36 35 38 39 39 36 30 26 26 22 33 23 23 27 23 19 19 20 25 25 25 24 25 26 23 22 22 23 23 22 16 19 24 35 43
43 42 42 42 43 43 44 39 38 37 33 34 35 34 34 34 30 28 28 20 24 29 27 29 26 26 26 26 27 26 25 25 24 24 22 23 22 23 22 20 17 21 27 33 44
43 42 42 43 43 41 35 37 40 38 32 31 30 28 32 31 27 24 26 21 28 30 29 28 30 31 28 28 28 25 25 26 27 25 23 22 21 22 24 18 17 22 28 30 44
43 43 43 43 35 36 36 37 37 41 29 26 29 29 30 29 25 28 25 23 28 29 33 33 37 33 31 30 30 25 27 31 30 26 21 26 22 22 23 20 18 18 22 28 42
43 44 42 41 38 36 36 36 37 40 -2 19 23 29 29 23 22 20 23 22 25 34 35 30 34 34 33 31 29 29 31 34 32 30 29 25 23 22 22 19 19 20 20 27 42
42 43 42 38 37 38 37 36 39 27 -2 20 25 24 27 25 24 21 19 21 23 33 36 33 37 35 34 36 34 32 35 34 32 29 24 24 24 22 20 18 18 20 21 23 42
41 43 41 39 33 36 37 37 24 19 15 16 22 23 25 24 24 19 18 17 22 24 27 30 33 34 36 33 35 34 35 27 25 24 22 24 23 22 23 23 22 23 23 23 41
41 42 40 39 38 37 36 31 18 16 19 19 20 20 22 18 21 20 17 16 19 23 18 16 16 32 34 32 32 32 35 29 21 23 25 28 20 20 22 22 22 22 22 26 42
41 38 37 37 38 38 33 22 18 18 20 21 20 11 10 10 13 20 17 17 16 20 16 15 21 28 31 31 31 32 32 34 31 32 28 27 27 26 28 27 25 23 24 30 42
38 36 35 35 37 36 29 18 19 20 22 19 19 18 15 18 16 19 22 29 24 20 21 20 18 21 29 33 33 33 34 30 31 24 23 25 25 28 27 29 27 31 33 35 41
35 30 30 35 37 33 23 22 21 21 19 24 24 22 17 17 17 18 28 31 27 27 29 30 24 22 27 31 29 35 34 35 33 31 27 26 31 34 34 31 30 34 37 38 40
33 24 31 37 26 30 23 24 22 19 22 21 24 24 17 18 16 17 23 30 28 28 28 28 29 28 25 28 30 33 34 35 30 29 30 30 30 40 42 39 35 37 38 41 44
31 29 31 33 24 24 26 26 26 24 23 19 23 23 20 19 16 18 25 28 27 28 23 26 29 25 23 29 31 30 31 35 36 35 31 29 29 42 44 41 39 38 41 43 45
31 23 25 31 29 26 26 26 27 28 24 24 23 24 20 18 19 18 18 27 26 27 30 29 26 24 22 29 32 33 32 33 35 31 29 31 34 39 41 42 42 39 42 43 45
32 25 26 22 26 28 27 25 23 22 27 29 23 22 19 16 17 17 22 23 30 33 32 30 23 30 31 30 29 31 31 34 35 33 32 31 35 37 42 44 44 40 41 43 44
28 26 28 26 25 24 24 21 18 22 30 27 25 29 28 21 18 18 25 25 28 30 31 32 26 30 27 30 30 27 30 33 34 36 36 36 35 42 46 45 44 40 40 42 42
35 33 27 24 23 21 24 25 23 26 31 32 28 31 29 28 33 30 29 29 29 27 29 29 28 26 22 28 27 25 28 30 34 34 35 35 38 43 43 42 40 40 40 41 39

GFSSW_sfc_30mbdewp_075.txt.gz
Dewpoint
45 46 46 47 48 48 48 48 48 47 47 47 47 47 48 49 50 45 32 26 40 44 45 37 35 38 38 35 35 29 23 19 20 19 17 22 20 20 21 20 23 30 44 45 53
46 46 47 47 47 47 47 47 47 47 46 46 45 46 48 50 46 36 36 38 45 51 39 30 22 26 30 34 35 32 26 20 23 21 19 22 21 21 20 20 20 22 49 53 55
45 45 45 45 46 46 46 47 47 46 45 45 45 45 48 48 34 8 34 44 44 49 39 31 30 20 20 31 32 32 25 24 26 26 27 25 23 22 20 19 19 18 35 54 55
44 44 45 46 46 46 46 47 45 44 44 44 44 45 46 46 -26 27 47 47 43 51 41 45 41 29 21 17 28 30 30 29 28 28 26 25 24 22 20 20 21 20 36 54 54
43 44 45 45 45 44 45 45 44 44 44 44 44 46 44 38 26 28 32 29 35 48 43 43 38 29 21 18 19 27 30 30 30 29 27 26 24 23 22 22 22 20 50 53 53
43 45 45 45 43 43 44 45 45 44 43 44 45 46 41 29 30 27 29 28 27 41 39 40 34 32 25 22 18 21 23 25 27 28 29 27 26 23 22 20 17 20 48 53 53
44 45 44 43 42 42 43 45 45 44 44 44 46 45 40 35 36 34 36 32 29 25 21 16 19 16 17 17 25 28 27 27 25 24 24 24 21 21 21 20 18 19 40 51 51
45 44 44 44 43 44 44 44 44 44 45 47 46 44 37 41 40 40 38 34 33 33 25 22 20 19 17 19 26 28 28 25 25 25 23 21 19 21 20 18 17 17 28 46 49
43 44 44 43 44 44 43 43 44 46 48 47 46 44 34 40 42 39 36 29 28 26 25 23 23 21 17 17 22 27 24 24 24 24 22 20 19 20 20 19 17 16 17 37 44
43 43 43 44 44 43 42 44 45 47 47 47 45 40 39 29 35 32 31 32 26 24 26 23 22 19 20 22 19 24 25 24 23 22 23 21 21 22 24 24 23 21 19 27 40
43 43 43 44 43 43 43 42 38 34 36 34 38 38 36 37 32 27 27 24 30 24 22 26 21 19 19 19 24 25 25 24 25 26 25 24 24 23 24 24 24 23 22 21 37
43 42 42 43 43 43 37 37 34 36 35 36 34 34 37 38 33 29 29 22 20 27 25 25 23 24 23 22 23 26 25 24 26 26 27 24 23 24 24 24 23 23 22 20 35
43 42 42 43 42 37 35 36 36 35 34 30 29 29 31 33 30 27 25 24 25 22 28 23 25 32 29 27 27 27 25 25 25 28 28 26 24 23 23 24 24 21 20 25 35
43 43 44 43 31 37 35 36 34 37 28 23 27 29 30 30 26 26 25 22 22 26 30 30 31 32 30 29 30 28 27 26 31 29 25 26 22 24 24 24 23 22 22 28 40
43 42 44 42 37 32 36 35 36 39 -0 14 27 31 30 24 23 24 25 22 26 33 34 29 33 34 33 31 31 30 31 33 33 32 30 29 26 24 24 23 23 22 21 23 38
42 41 43 38 38 36 37 37 39 25 -5 11 26 26 25 25 24 21 20 22 25 31 36 33 37 35 34 34 34 31 35 35 33 31 28 28 24 23 22 22 21 22 23 22 28
42 41 41 41 33 37 36 35 21 18 14 19 20 22 25 26 24 18 19 18 21 22 23 30 32 35 36 31 35 34 33 26 25 26 24 24 23 23 23 24 25 24 24 24 28
41 41 39 39 38 38 35 29 14 12 17 21 19 20 20 24 24 19 17 17 19 24 21 20 11 33 35 31 32 33 33 27 21 23 22 24 22 23 24 25 28 30 26 24 25
40 36 36 36 38 37 32 20 12 18 21 20 19 19 18 19 18 19 18 17 17 21 18 15 16 30 34 33 33 35 31 33 30 32 27 25 27 26 32 31 32 36 32 26 31
36 34 33 36 38 35 24 17 19 20 20 18 19 25 20 19 17 18 18 24 21 20 20 18 17 22 30 32 34 35 35 30 31 23 22 24 24 30 36 37 36 37 40 40 43
33 26 29 36 37 30 20 20 21 21 21 21 22 23 27 21 18 18 23 30 27 29 23 27 21 21 32 32 32 35 34 34 33 31 25 24 31 38 41 43 38 40 43 46 42
31 19 29 35 27 25 22 24 23 23 25 24 21 19 29 27 19 21 21 31 32 29 28 28 30 26 25 27 32 35 34 35 29 28 29 30 29 40 43 44 40 42 45 47 48
28 28 32 32 22 24 25 25 26 24 24 24 19 19 27 29 25 25 27 29 28 26 28 26 27 20 22 29 32 32 34 36 36 34 30 27 29 42 42 43 43 42 45 44 45
30 20 21 31 28 25 24 22 21 26 25 26 25 24 24 25 28 22 26 22 28 29 32 27 26 23 18 25 32 31 31 35 35 30 30 31 35 38 39 41 43 41 42 42 42
32 24 24 20 24 25 26 26 22 21 21 26 25 24 24 23 21 24 24 25 32 32 33 27 20 29 29 29 29 29 29 30 33 34 31 30 31 35 40 41 42 44 42 39 38
29 26 28 25 25 23 23 22 22 25 26 24 24 26 29 28 24 22 21 25 26 30 30 32 25 29 24 26 28 23 24 27 28 34 35 35 34 39 42 45 44 44 41 37 36
34 35 28 23 23 19 17 21 20 21 25 27 30 30 28 28 30 33 32 29 28 26 27 27 27 25 18 24 21 17 26 21 26 34 33 31 35 41 43 44 44 42 39 36 35

GFSSW_sfc_30mbdewp_078.txt.gz
Dewpoint
45 46 45 45 46 47 47 46 46 46 46 46 46 46 45 47 49 45 31 21 39 45 48 36 36 39 38 35 35 29 21 18 17 17 16 22 20 21 22 20 21 27 36 46 54
45 45 44 45 46 46 46 46 46 45 45 45 45 45 45 48 46 37 36 41 47 50 33 31 24 31 30 34 34 30 24 18 22 20 18 20 22 22 22 21 21 22 36 52 56
45 44 44 44 45 45 45 45 45 44 44 44 44 44 46 47 32 4 44 43 44 50 41 31 26 20 21 32 32 32 25 24 25 24 25 24 24 24 22 22 21 20 23 48 55
44 43 44 45 45 44 44 45 44 44 43 43 43 44 46 44 -27 31 42 48 48 51 41 44 39 28 18 17 26 25 29 29 27 26 26 25 25 25 24 24 25 23 22 40 51
44 44 45 45 43 43 42 44 43 43 43 43 44 45 44 36 24 28 35 32 40 47 38 43 37 30 25 20 20 21 24 27 29 30 29 28 27 26 26 26 25 24 23 36 47
45 45 45 44 42 42 41 43 44 43 44 44 45 45 43 26 31 28 33 31 26 44 40 41 35 35 29 23 22 21 21 21 23 24 28 28 27 28 27 26 25 22 20 31 46
44 45 45 43 42 42 42 44 44 45 44 46 46 44 41 31 37 37 38 33 29 27 28 28 28 24 17 15 20 24 24 27 28 27 26 27 25 25 27 25 23 21 20 29 47
44 44 44 44 43 44 44 43 44 46 48 49 47 43 37 40 41 40 39 37 36 32 29 23 19 18 18 18 21 22 26 24 26 26 25 23 20 23 23 22 21 20 18 27 46
44 44 44 45 45 44 43 43 45 48 48 48 45 43 33 40 40 41 40 31 30 31 28 23 22 20 19 16 15 23 21 24 26 26 24 22 21 22 22 21 21 20 20 19 37
44 43 43 44 44 44 43 43 45 48 47 47 45 40 37 28 37 34 33 35 26 25 26 23 22 19 20 18 11 19 23 25 25 24 25 24 23 25 25 25 24 24 24 22 22
42 42 42 42 43 43 42 40 34 34 36 33 35 38 34 34 35 29 28 26 28 24 21 24 21 19 19 20 19 22 22 22 25 26 25 25 25 25 25 25 24 24 24 23 23
42 42 41 41 42 40 36 35 33 34 30 35 35 36 35 35 34 31 30 23 25 28 24 25 22 23 21 20 19 19 20 23 25 26 26 27 27 28 27 26 25 24 23 23 24
42 42 41 42 41 35 36 34 34 35 33 31 30 29 31 32 31 29 28 23 20 23 27 24 22 29 25 25 25 25 25 25 25 26 29 28 25 24 24 24 24 24 24 24 22
43 42 43 44 32 36 35 36 35 36 25 16 25 29 30 31 29 31 28 21 22 20 27 28 28 26 30 29 29 27 29 28 27 29 24 30 24 25 26 26 25 24 24 23 25
43 42 42 42 36 31 32 36 35 38 -19 7 28 31 31 28 25 24 26 23 20 28 31 28 33 33 31 30 31 29 31 32 32 30 30 29 26 25 25 24 24 24 25 23 26
41 42 41 39 38 36 37 36 38 11 -22 8 25 24 23 26 24 21 23 22 29 34 35 31 37 35 32 34 34 32 32 33 33 31 25 26 27 25 24 23 22 23 23 25 24
41 41 40 40 31 37 36 34 11 -1 10 19 20 17 20 21 25 20 20 19 22 22 23 28 31 35 36 32 35 35 31 25 25 24 22 26 27 26 24 23 24 27 31 31 26
41 40 38 39 38 37 34 24 -6 10 17 21 17 19 20 21 22 22 18 18 19 23 23 19 10 32 35 31 29 34 31 24 21 23 25 25 22 23 35 39 36 38 40 40 34
40 34 33 35 37 37 27 10 7 20 20 18 16 24 22 24 24 19 18 17 18 23 17 16 14 32 35 33 33 33 31 35 30 30 27 25 26 32 40 41 40 42 44 46 46
34 31 29 36 38 34 22 15 18 21 21 21 19 27 23 25 25 22 18 22 18 20 21 17 16 24 31 33 35 35 36 30 30 22 22 23 26 32 38 39 41 43 45 47 46
31 23 31 36 37 27 17 18 21 21 24 22 21 18 17 22 27 26 22 29 34 28 22 23 20 22 31 31 31 34 33 34 34 31 24 22 28 39 41 42 40 43 43 45 47
29 15 28 35 25 23 21 23 24 24 25 24 23 20 19 26 24 27 28 32 36 35 26 29 29 24 25 29 34 34 33 34 29 28 31 30 27 42 43 40 43 42 43 44 46
26 27 31 31 22 22 24 24 24 23 24 24 23 23 22 24 23 29 31 34 32 35 33 28 29 20 23 28 33 34 35 35 35 34 28 26 27 42 43 40 42 41 40 42 43
28 18 20 30 26 26 24 22 22 23 23 26 25 25 24 25 27 26 29 32 32 31 35 27 27 19 15 18 29 27 28 29 33 29 30 30 30 37 39 39 40 42 39 39 40
29 23 24 19 24 23 22 22 22 21 24 25 23 25 24 23 25 27 30 32 33 33 34 26 21 28 27 26 29 28 27 27 27 31 29 28 31 33 39 40 43 43 38 37 36
28 25 28 25 25 22 21 20 20 25 23 21 27 25 26 26 26 27 28 29 29 29 31 30 26 27 20 24 21 16 13 16 22 26 31 33 33 36 41 44 44 42 37 34 33
34 34 28 23 23 19 16 16 17 20 19 22 24 23 24 26 30 30 31 33 33 28 27 27 26 22 15 20 17 5 18 14 22 24 28 28 33 37 40 43 42 40 38 34 33

GFSSW_sfc_30mbdewp_081.txt.gz
Dewpoint
45 45 45 45 45 46 45 45 46 45 45 45 45 45 45 45 48 45 29 22 40 45 47 40 40 40 37 34 33 28 20 17 16 15 13 20 19 21 22 21 22 23 32 43 54
45 45 44 44 44 45 45 45 45 44 44 45 44 44 45 47 45 38 37 41 46 50 37 28 29 36 32 33 34 29 23 19 21 19 18 19 20 19 21 21 21 23 26 51 57
45 44 44 44 44 44 44 44 43 43 43 44 44 44 46 47 30 1 49 46 47 51 38 30 24 26 21 32 32 31 22 25 23 23 23 23 23 23 21 21 22 23 24 35 51
44 45 45 45 44 43 43 44 43 42 43 44 44 45 46 43 -27 32 41 46 48 50 40 35 29 19 16 15 26 22 30 27 25 24 23 22 22 21 22 24 26 27 28 26 33
45 45 45 44 44 43 43 44 43 42 44 45 45 45 44 33 20 29 35 34 47 48 36 42 36 28 24 22 20 25 23 25 26 26 27 28 27 27 27 29 29 28 27 28 29
45 44 44 44 43 42 43 44 44 44 44 45 46 45 42 20 29 30 36 33 30 44 39 42 37 34 30 26 24 23 22 22 23 25 26 23 23 27 25 28 27 28 27 28 27
44 44 44 44 43 42 42 44 44 45 46 48 47 44 40 30 38 38 39 34 30 32 35 40 38 29 24 17 20 21 20 22 25 26 26 26 23 24 27 28 28 28 26 25 26
45 45 44 44 43 43 44 44 45 46 49 50 47 43 34 40 41 41 39 37 38 36 28 24 21 22 17 19 19 19 21 16 25 27 27 26 18 21 23 24 23 24 24 23 23
44 43 43 44 44 44 43 44 45 49 48 47 43 41 29 39 38 40 39 34 32 35 31 27 22 19 19 17 15 19 13 23 23 27 26 24 21 24 24 24 23 23 23 23 25
41 41 42 42 43 43 43 42 44 48 47 47 43 37 34 28 37 35 38 36 29 27 27 24 22 20 20 17 9 12 20 24 23 24 23 23 24 26 27 27 27 26 26 27 27
41 41 41 40 41 43 40 36 30 31 33 27 28 31 28 30 35 31 29 28 26 24 23 23 20 17 17 19 16 17 18 18 22 24 23 20 21 23 26 28 28 28 27 27 27
41 42 41 41 41 40 37 32 31 31 30 33 33 33 33 32 30 31 32 27 25 27 25 26 22 22 22 21 20 20 18 18 22 25 24 23 23 25 27 27 27 27 27 27 27
42 43 42 42 39 35 36 32 35 34 32 31 31 31 29 34 32 30 29 25 22 26 26 26 23 28 23 22 21 23 23 24 24 26 27 27 23 20 23 25 26 27 27 27 27
43 42 42 41 31 35 34 34 36 36 22 3 24 29 31 31 29 31 30 23 23 20 26 27 26 25 27 27 28 26 29 28 28 28 24 29 22 24 24 24 25 27 28 28 27
41 41 42 40 35 32 30 37 36 37 -33 -1 28 30 31 26 25 24 28 24 20 24 27 22 32 32 27 26 30 29 31 31 31 29 29 27 26 24 26 24 25 27 28 28 29
40 41 40 38 37 36 36 36 36 -1 -35 4 22 16 17 24 26 23 23 25 25 27 35 25 36 35 32 34 33 32 32 31 32 30 25 24 25 23 24 25 25 26 27 31 33
41 41 40 40 28 37 37 32 -10 -25 10 17 18 15 17 22 23 21 21 21 23 25 25 29 32 35 35 31 35 33 30 22 22 24 20 25 26 25 30 39 38 39 41 43 44
40 39 36 37 37 37 33 11 -24 12 18 20 15 19 21 26 24 22 19 20 20 22 23 21 13 31 35 30 26 32 30 23 19 21 24 28 24 27 40 41 42 44 45 46 47
37 33 30 34 38 36 24 -11 8 19 19 16 13 24 24 22 24 24 22 18 19 23 18 18 14 32 35 33 31 33 30 33 28 28 26 24 26 36 39 40 41 43 43 45 47
33 29 31 36 38 29 13 12 16 21 22 21 14 20 13 12 14 22 24 27 32 23 23 18 15 26 33 34 35 35 36 30 30 21 20 23 26 30 37 39 40 41 42 44 47
29 22 30 36 35 23 10 15 20 22 24 21 19 15 11 16 23 23 25 31 34 35 29 22 20 26 32 30 30 33 33 33 33 31 23 21 24 39 39 40 42 41 42 43 44
28 15 27 37 23 24 21 23 25 24 25 22 24 22 20 23 26 24 24 29 35 34 31 28 25 21 27 31 33 34 33 32 28 27 30 28 26 42 42 42 42 39 40 42 43
26 26 30 31 20 21 22 23 24 22 23 24 21 23 22 21 19 24 28 33 34 34 33 33 29 23 24 31 35 33 35 36 35 33 27 25 24 40 41 38 42 39 38 38 40
26 15 21 29 26 25 22 22 22 23 22 24 24 24 23 23 24 24 26 30 33 33 38 35 29 23 18 22 27 26 27 27 30 26 28 27 27 31 38 39 42 40 38 36 37
27 22 24 19 24 22 23 21 19 20 25 25 24 27 23 22 22 23 26 30 30 32 36 33 27 29 27 26 28 28 24 21 21 24 23 19 23 27 32 39 43 39 37 35 34
25 24 28 25 25 21 20 18 15 21 22 17 19 23 21 18 20 22 25 26 30 33 32 35 28 29 21 25 20 14 13 14 18 21 22 25 26 31 34 41 43 38 36 34 33
33 34 27 23 23 19 17 16 16 19 18 20 21 22 21 22 31 32 33 32 33 31 31 29 27 22 14 20 16 8 15 14 20 28 29 27 29 32 39 42 42 38 35 34 32

GFSSW_sfc_30mbdewp_087.txt.gz
Dewpoint
46 45 45 45 45 45 46 45 45 45 45 45 45 46 46 47 48 40 30 29 33 40 40 34 36 27 26 24 27 26 21 17 14 12 11 13 12 12 13 12 11 13 15 21 34
45 45 45 46 46 45 45 45 45 45 45 44 45 46 47 48 43 33 36 37 35 49 29 26 29 30 26 22 23 22 20 16 16 14 15 15 14 14 14 14 15 14 14 18 27
45 46 46 45 45 45 45 45 45 44 44 44 45 47 47 47 32 18 46 48 44 47 31 17 23 26 25 21 21 22 19 18 15 17 19 18 17 17 16 15 15 16 17 16 18
45 46 45 45 45 45 45 44 44 44 44 44 46 47 47 43 7 32 43 48 48 38 32 22 18 18 22 19 21 20 21 20 18 19 19 19 19 17 16 17 18 18 18 18 16
46 46 45 45 45 45 44 44 43 43 43 45 46 47 43 29 21 33 33 34 34 37 34 23 18 14 16 13 11 14 13 15 17 13 15 17 16 16 15 17 17 18 20 20 20
46 46 46 45 44 44 43 43 43 43 45 46 47 47 42 24 21 20 18 25 25 32 30 25 20 17 14 14 11 12 14 15 18 15 15 17 17 16 16 16 16 18 20 22 23
46 45 45 44 43 43 42 42 44 45 46 48 50 46 35 24 24 21 24 21 15 23 25 25 26 26 22 18 17 18 17 15 14 12 12 13 13 14 15 16 16 17 19 20 22
44 42 42 42 43 42 42 44 45 46 49 50 49 43 29 28 27 25 26 24 23 17 19 25 26 26 22 19 17 14 12 8 7 8 12 13 10 14 15 17 18 17 17 19 21
41 41 41 42 42 43 43 44 45 49 49 48 45 39 28 32 29 32 33 28 21 17 17 17 18 20 20 15 12 9 5 3 3 11 15 18 15 16 18 19 20 21 21 20 21
41 41 42 42 43 43 43 43 46 49 47 43 40 37 33 24 26 32 30 32 27 26 22 18 14 11 11 10 5 3 3 4 6 6 11 17 17 15 15 17 18 18 21 21 22
41 41 42 41 41 42 40 35 36 38 31 19 18 21 14 16 22 18 25 27 26 26 21 17 12 10 11 14 13 10 8 5 5 4 8 10 12 13 14 14 15 16 18 23 24
42 42 42 41 41 39 38 25 28 32 22 20 25 25 27 29 26 22 18 19 22 19 20 15 14 15 11 12 13 13 12 9 8 10 12 15 18 19 19 19 18 18 20 20 24
42 42 41 41 41 36 29 30 32 33 27 16 26 25 25 30 27 25 22 20 17 16 17 16 15 19 13 11 12 12 12 12 11 12 18 18 16 16 19 20 21 21 21 21 23
41 41 41 41 35 27 29 27 31 37 26 9 25 24 18 24 28 27 26 22 18 16 17 17 19 19 19 16 15 13 12 13 15 20 15 18 15 15 16 17 22 23 25 25 22
41 40 41 41 31 23 25 30 35 39 5 9 23 26 11 21 20 26 25 23 17 16 19 15 19 19 18 19 17 14 17 23 23 22 21 18 15 14 16 20 27 30 32 32 27
40 40 40 36 33 27 30 34 37 27 -3 9 15 9 4 13 17 21 23 25 22 15 15 17 18 21 21 21 21 19 22 24 23 20 17 17 15 9 18 30 34 36 37 39 39
40 40 37 32 28 32 35 33 20 -2 -3 7 9 7 -1 7 12 15 13 17 18 18 14 14 15 17 21 24 26 21 22 18 16 19 16 16 17 15 30 34 36 37 38 40 42
39 36 34 31 35 37 34 22 -1 -1 1 8 6 1 -12 5 7 3 6 8 11 16 14 12 10 14 15 22 22 23 22 17 8 9 17 21 17 20 33 37 36 37 38 40 42
37 33 33 35 39 36 27 6 1 7 10 8 1 -11 -6 7 1 -6 1 8 20 30 28 20 15 21 24 24 24 19 19 20 15 17 17 17 12 30 32 36 35 35 37 40 42
29 28 28 36 37 32 16 9 6 11 12 8 -0 -1 2 0 1 -4 -4 21 29 31 30 27 20 22 24 29 26 21 25 24 24 17 13 11 11 23 35 33 32 33 37 39 41
28 24 30 33 37 21 19 7 9 13 14 12 8 7 7 8 7 7 6 20 29 28 28 29 26 21 23 26 23 25 28 29 27 23 18 16 23 36 34 33 33 34 38 39 40
25 24 29 34 23 17 13 15 18 14 16 14 16 13 12 11 10 10 9 10 27 26 21 31 31 22 22 24 27 30 25 26 24 19 22 25 24 36 34 34 36 36 38 39 39
20 20 26 33 24 16 18 15 16 13 13 13 12 12 13 12 12 11 12 14 21 25 27 29 27 21 16 26 26 24 29 29 30 30 26 22 25 37 27 23 32 37 38 38 38
25 25 23 21 20 20 18 14 13 17 13 15 13 14 15 15 14 19 17 19 24 21 32 34 27 22 18 20 27 21 23 29 29 27 23 23 21 21 17 25 29 39 38 37 36
26 24 24 21 17 16 16 15 13 12 12 14 12 20 19 14 12 11 17 16 17 31 34 32 24 24 26 28 29 28 27 26 26 26 22 19 14 14 24 27 37 39 38 35 34
30 20 20 19 19 16 13 11 8 9 14 12 12 11 12 13 13 14 13 16 21 27 26 29 25 26 28 19 19 17 18 15 13 10 8 10 17 34 39 39 40 38 36 33 32
28 29 24 16 17 18 16 12 10 13 14 13 13 13 12 13 16 20 22 22 22 23 26 27 27 28 24 24 16 12 11 9 14 18 24 27 32 36 36 33 33 35 33 32 32

GFSSW_sfc_30mbdewp_093.txt.gz
Dewpoint
47 47 47 46 47 47 47 47 47 47 46 45 46 46 46 48 49 45 38 37 40 41 39 33 25 28 27 23 26 30 30 29 28 24 22 22 19 17 17 10 11 10 13 40 43
46 46 46 47 47 47 47 47 47 46 46 45 45 45 47 49 47 43 40 40 43 38 28 24 14 16 23 22 24 22 23 27 26 25 23 21 20 18 18 17 15 14 15 26 40
46 46 46 47 46 46 47 47 47 46 45 45 44 45 48 49 42 33 42 46 39 41 24 20 15 11 25 21 20 21 20 21 23 26 24 21 20 19 18 18 19 18 16 16 31
45 46 46 47 47 47 47 47 46 45 45 44 44 47 48 47 8 35 45 46 47 40 31 25 21 13 13 22 22 19 20 20 19 20 19 19 20 20 17 19 21 20 20 20 20
46 46 46 47 47 46 46 46 45 44 44 44 45 47 46 40 38 41 47 47 39 31 30 28 28 24 13 16 18 19 21 21 19 19 19 19 18 18 16 15 14 15 17 18 20
47 46 47 47 46 45 44 44 44 43 43 45 46 47 45 27 25 35 34 36 29 34 33 33 31 26 17 14 13 12 13 14 16 17 16 16 15 15 16 16 14 13 15 16 18
46 47 47 45 43 42 42 43 44 43 44 45 48 47 42 30 27 27 25 17 16 14 15 18 26 24 23 21 23 20 19 17 17 16 15 16 15 16 17 18 16 15 16 16 18
47 46 44 42 42 42 43 44 44 44 45 47 51 48 39 35 32 30 25 21 21 20 18 16 14 17 23 24 23 22 20 16 15 14 13 11 9 13 14 12 11 12 14 14 14
45 43 42 42 43 44 44 44 44 44 47 50 48 47 36 33 30 28 22 21 24 23 19 17 12 13 19 21 20 20 17 15 14 14 13 8 5 7 11 11 14 17 17 17 20
43 42 42 43 44 44 44 44 43 44 48 46 44 42 40 27 19 23 26 28 27 26 20 15 13 11 13 14 14 16 15 13 10 10 13 13 13 12 12 11 13 12 12 14 15
42 42 42 42 43 43 43 38 39 41 42 39 38 32 30 19 22 23 21 17 20 26 23 17 12 10 10 11 13 12 11 9 12 14 12 11 13 13 12 10 9 9 10 11 15
42 42 42 42 41 42 42 36 27 30 24 29 39 33 19 19 26 27 23 17 12 22 23 21 17 17 15 12 12 12 11 11 13 14 11 9 10 14 13 13 13 12 12 13 15
42 42 41 41 41 39 34 26 30 34 27 25 21 21 25 27 26 25 20 15 13 15 15 15 20 21 19 16 14 14 13 12 11 11 11 11 11 12 13 13 16 16 15 16 16
42 41 41 41 39 36 32 28 34 37 25 23 16 23 22 25 22 26 26 24 20 14 15 16 16 15 16 15 16 14 16 15 15 13 12 13 11 16 19 19 19 19 29 24 41
41 41 41 41 37 33 30 31 33 39 12 16 19 24 16 16 16 24 25 21 20 19 18 17 16 15 14 15 16 17 19 18 17 14 17 20 19 19 20 18 14 38 40 42 43
40 41 40 38 40 37 35 35 36 32 10 10 21 19 7 4 7 23 24 23 21 20 20 17 17 14 13 15 17 19 18 18 17 16 15 17 19 17 16 17 38 40 42 43 44
41 40 38 34 35 37 38 36 30 22 9 9 8 7 3 0 -2 -8 9 8 19 10 12 19 21 20 13 11 16 19 19 15 15 15 15 21 25 23 33 37 41 41 41 43 44
39 38 37 34 39 39 39 32 20 9 7 6 3 0 -3 -4 -5 2 1 -1 -1 26 25 20 15 21 21 14 14 18 19 23 14 14 15 23 25 25 40 40 42 40 41 42 43
38 35 38 41 39 39 34 25 14 9 9 5 1 -4 -5 3 5 2 2 2 25 26 25 25 21 24 22 23 25 18 19 25 26 24 20 19 20 29 38 37 40 39 39 40 41
35 36 36 37 38 38 31 22 12 10 9 7 0 -1 3 6 6 7 6 12 23 24 23 21 19 21 20 29 25 26 20 21 28 22 19 17 16 31 37 37 41 38 38 39 40
34 32 34 34 38 35 25 19 10 13 12 8 8 8 8 7 7 7 7 13 21 21 22 28 24 21 21 21 25 26 25 22 25 25 20 21 26 38 37 38 41 38 38 37 37
35 29 33 34 33 33 23 17 14 9 12 11 13 12 10 11 10 9 8 20 26 25 20 28 24 20 18 19 19 30 33 33 28 23 26 25 25 37 37 40 42 37 36 35 35
32 29 31 36 27 24 17 14 12 10 11 11 11 11 11 10 10 11 13 27 25 22 23 26 20 13 6 13 25 29 31 32 32 29 25 23 29 37 40 39 36 35 34 34 33
34 23 27 30 23 23 16 13 13 16 11 9 11 12 11 16 15 16 16 18 19 26 32 29 24 16 10 12 18 19 24 24 31 29 28 31 31 37 38 36 35 34 33 32 31
34 27 27 22 21 19 18 14 12 11 12 12 11 16 15 13 13 13 14 14 17 28 32 28 22 23 23 23 23 22 21 22 29 33 29 31 31 34 35 35 34 32 31 30 30
28 28 22 21 17 17 12 14 9 12 13 12 11 11 11 11 12 12 13 14 15 18 23 31 23 22 20 20 20 19 24 31 31 32 33 31 32 35 33 33 32 30 29 29 28
26 28 30 18 18 20 18 13 14 14 15 13 13 14 13 13 19 21 20 18 19 18 17 19 20 20 14 19 20 20 29 28 31 35 33 30 33 33 30 29 29 29 28 28 27

GFSSW_sfc_30mbdewp_096.txt.gz
Dewpoint
48 48 47 47 47 48 48 48 48 48 47 46 46 46 46 48 49 47 33 26 40 40 43 36 31 25 29 21 25 31 30 27 28 27 27 29 25 20 21 18 20 13 17 35 47
48 47 47 47 47 48 47 48 48 48 47 46 46 45 46 49 47 41 40 43 44 46 33 29 22 16 29 22 21 24 24 28 30 30 28 27 25 23 20 19 19 19 27 43 46
48 47 47 47 47 47 47 48 48 47 46 46 45 45 48 49 38 28 42 48 47 50 27 23 21 14 18 22 22 22 22 23 22 24 26 26 25 23 20 19 19 19 20 25 40
48 47 47 47 47 47 48 48 47 46 45 45 44 46 48 47 3 34 44 45 46 41 31 25 20 14 12 19 24 21 20 19 20 21 20 20 21 19 20 20 21 21 19 19 22
48 47 47 47 47 47 47 47 45 45 44 44 44 47 45 37 31 35 45 45 42 36 30 29 28 24 16 13 16 18 22 23 22 22 21 20 19 18 18 20 18 15 16 17 16
48 48 47 47 47 47 46 45 44 44 44 44 46 46 43 16 20 29 45 44 37 29 32 32 33 31 27 23 17 14 15 14 16 17 18 17 16 16 17 18 18 18 17 18 17
49 48 48 48 47 45 43 43 45 44 43 45 46 46 43 25 29 31 33 28 29 30 27 25 27 21 21 21 24 24 22 22 20 17 16 15 14 14 17 18 17 17 17 17 19
48 48 48 46 44 43 43 44 45 43 44 45 49 45 36 38 38 37 33 29 22 18 17 19 18 14 20 24 22 22 21 20 18 16 15 13 11 12 11 11 11 12 14 15 14
48 48 46 43 44 44 44 44 43 43 44 47 48 45 36 41 37 35 32 25 19 21 21 19 16 12 13 18 19 20 18 18 18 17 15 14 12 13 12 13 12 12 11 13 16
49 47 43 43 44 45 45 43 43 44 43 47 46 42 40 29 23 25 27 27 25 27 20 18 14 10 12 14 15 16 16 17 15 14 12 13 12 13 15 14 14 13 14 14 12
47 43 43 43 43 43 43 38 39 40 40 39 37 36 33 29 19 21 21 16 20 23 23 18 11 9 8 11 14 14 14 13 12 12 13 13 12 11 11 13 13 14 13 12 11
44 43 43 43 42 42 42 35 28 29 24 33 41 39 39 36 20 27 27 19 15 12 22 23 17 15 14 13 12 12 11 11 12 13 13 12 11 10 11 12 13 14 15 15 15
44 43 42 42 42 39 36 30 34 32 20 20 24 28 31 26 24 27 22 21 13 12 15 21 19 21 19 18 17 15 12 12 13 14 13 11 10 12 14 14 14 16 17 19 22
44 42 41 41 34 37 33 31 37 37 10 18 21 20 23 27 25 27 26 22 17 13 13 13 14 15 15 17 19 16 17 15 15 16 14 14 12 15 16 18 20 21 25 43 45
43 41 41 41 38 35 31 33 34 39 -12 20 17 25 23 21 16 25 26 23 19 18 19 18 17 16 15 15 16 15 17 18 18 17 16 17 15 14 16 17 19 23 43 44 45
41 40 41 36 39 37 35 36 37 28 -7 18 23 21 15 15 10 24 24 23 22 20 20 19 20 19 17 16 15 16 18 18 18 17 14 16 16 15 15 27 39 42 44 45 45
39 39 38 37 36 38 38 36 28 19 15 9 12 9 3 2 1 -2 6 17 14 11 10 18 14 16 21 20 18 14 18 16 15 14 13 14 16 16 24 39 40 41 42 43 43
39 39 37 35 36 39 39 31 22 12 7 5 3 -3 -4 0 -1 2 2 1 25 27 25 22 17 21 23 22 22 18 15 15 16 16 17 22 19 25 39 40 42 41 43 41 40
39 36 34 39 37 40 34 25 14 10 8 5 2 -1 4 7 8 7 6 22 26 23 21 22 22 21 21 22 25 23 17 21 19 21 22 22 20 31 38 39 40 39 41 39 37
36 36 37 40 39 38 31 23 11 10 9 7 -0 7 7 7 8 7 6 22 23 22 23 24 18 20 21 17 16 26 27 22 24 18 15 19 19 25 35 36 39 40 38 36 35
33 33 34 37 39 35 20 17 12 12 11 10 10 9 8 9 9 9 9 22 23 24 27 24 23 19 18 14 17 14 24 29 29 23 18 17 22 37 36 38 38 39 35 33 33
34 29 34 37 33 33 23 18 13 11 12 12 13 13 12 11 10 8 9 21 26 24 20 26 22 19 16 17 17 16 17 32 26 24 26 24 25 38 38 40 38 34 33 32 31
32 26 32 36 25 21 17 13 13 12 13 12 12 13 12 10 9 13 17 27 23 21 21 24 19 13 7 6 19 21 20 29 30 30 26 24 25 37 38 34 34 33 31 31 31
34 17 26 30 29 21 16 15 14 14 10 10 11 13 12 16 16 15 13 21 20 28 31 27 23 16 11 12 20 19 21 23 25 23 25 25 30 35 33 35 34 32 31 29 29
34 28 26 20 20 19 18 15 15 13 14 14 13 14 13 13 13 13 14 15 15 29 31 25 20 22 23 21 20 18 18 17 18 22 26 29 30 31 33 32 30 30 29 28 28
28 21 25 19 20 16 17 13 15 14 13 12 11 13 13 11 12 13 17 16 14 17 26 30 20 23 16 17 16 18 20 20 21 29 31 33 29 33 32 31 29 28 28 27 26
31 30 22 19 20 18 17 17 15 15 15 15 16 14 13 15 19 20 20 20 19 17 16 21 19 15 12 17 18 14 16 18 31 31 33 29 30 32 29 27 27 27 26 26 26